GFSNE_prec_kuchsnow_159.txt.gz
Snowfall_Accumulation
0.0 0.0 0.0 0.0 0.0 0.0 0.0 0.1 2.5 3.9 0.4 0.0 0.0 0.0 0.0 0.0 0.0 0.0 0.0 0.0 0.0 0.0 0.0 0.0 0.0 0.0 0.0 0.0 0.0 0.0 0.0 0.0 0.0 0.0 0.0 0.0 0.0 0.0
0.0 0.0 0.0 0.0 0.0 0.0 0.0 0.0 0.3 0.8 0.8 0.0 0.0 0.0 0.0 0.0 0.0 0.0 0.0 0.0 0.0 0.0 0.0 0.0 0.0 0.0 0.0 0.0 0.0 0.0 0.0 0.0 0.0 0.0 0.0 0.0 0.0 0.0
0.2 0.3 0.2 0.0 0.1 0.0 0.0 0.0 0.0 0.1 0.2 0.0 0.0 0.0 0.0 0.0 0.0 0.0 0.0 0.0 0.0 0.0 0.0 0.0 0.0 0.0 0.0 0.0 0.0 0.0 0.0 0.0 0.0 0.0 0.0 0.0 0.0 0.0
0.5 0.9 1.5 0.8 1.1 0.3 0.2 0.0 0.1 0.1 0.1 0.0 0.0 0.0 0.0 0.0 0.0 0.0 0.0 0.0 0.0 0.0 0.0 0.0 0.0 0.0 0.0 0.0 0.0 0.0 0.0 0.0 0.0 0.0 0.0 0.0 0.0 0.0
3.7 2.5 2.4 1.8 3.6 3.1 2.0 1.1 0.3 0.5 0.8 0.2 0.1 0.0 0.0 0.0 0.0 0.0 0.0 0.0 0.0 0.0 0.0 0.0 0.0 0.0 0.0 0.0 0.0 0.0 0.0 0.0 0.0 0.0 0.0 0.0 0.0 0.0
2.3 2.6 2.9 1.8 4.5 4.7 4.5 5.1 4.0 2.4 1.6 1.6 0.5 0.2 0.1 0.0 0.0 0.1 0.0 0.0 0.0 0.0 0.0 0.0 0.0 0.0 0.0 0.0 0.0 0.0 0.0 0.0 0.0 0.0 0.0 0.0 0.0 0.0
0.4 0.4 0.6 0.4 1.0 2.1 3.2 4.4 2.9 5.4 4.9 3.5 2.3 0.8 0.1 0.0 0.2 0.2 0.4 0.1 0.0 0.0 0.0 0.0 0.0 0.0 0.0 0.0 0.0 0.0 0.0 0.0 0.0 0.0 0.0 0.0 0.0 0.0
5.7 3.3 1.7 0.3 2.0 0.5 0.6 1.7 3.1 5.6 5.4 4.7 4.1 3.3 1.3 0.4 0.4 0.9 0.4 0.5 0.5 0.0 0.2 0.1 0.0 0.0 0.0 0.4 0.0 0.1 0.0 0.0 0.1 0.0 0.0 0.0 0.0 0.2
7.2 7.9 6.1 6.2 4.0 2.5 2.9 1.7 1.5 1.3 3.8 4.3 4.1 3.0 3.1 1.7 1.1 0.7 0.8 2.3 1.7 0.0 0.1 0.3 0.0 0.1 0.0 0.0 0.0 0.0 0.0 0.0 0.0 0.0 0.0 0.0 0.0 0.0
3.3 2.9 1.7 1.6 3.3 2.4 4.3 4.3 2.6 2.7 3.3 5.1 7.2 7.1 6.7 5.7 3.2 3.1 1.4 1.8 0.7 2.2 0.5 1.8 4.2 5.0 1.0 3.7 1.4 0.0 0.0 0.0 0.0 0.0 0.0 0.0 0.1 0.0
0.8 0.8 0.8 0.8 0.7 1.3 0.8 0.8 1.0 1.2 1.0 1.8 3.0 2.6 4.2 2.9 4.1 5.0 8.0 8.1 8.9 6.1 3.6 4.9 5.1 6.7 6.8 3.1 5.8 2.1 2.7 3.5 3.6 0.4 0.7 2.0 2.3 2.6
0.2 0.4 0.2 0.6 1.4 1.3 2.2 2.0 2.0 1.2 1.3 1.4 1.2 0.6 1.6 1.2 1.1 1.4 3.2 7.4 8.6 9.5 7.5 9.5 8.0 8.7 15.0 14.3 14.3 10.9 8.4 9.3 7.6 6.2 4.8 4.2 2.7 2.4
0.1 0.1 0.1 2.5 2.0 1.1 0.9 1.3 2.1 1.8 1.2 0.8 0.7 1.6 1.1 1.2 1.1 0.5 1.4 3.3 5.0 4.3 5.2 13.1 17.5 16.6 20.8 19.6 13.8 10.9 9.5 10.6 10.9 7.8 5.7 4.1 3.6 1.6
5.6 6.0 6.2 3.7 4.6 2.8 3.0 4.1 3.9 4.7 4.3 3.0 2.9 4.4 9.2 6.5 7.0 6.8 8.3 8.8 8.8 10.9 12.3 10.9 15.9 14.3 14.5 14.3 11.3 7.9 6.5 6.2 5.8 7.1 9.4 6.1 4.8 7.4
10.6 10.4 9.8 9.4 9.9 10.0 11.5 10.9 10.5 11.6 12.7 15.9 23.1 23.0 22.8 19.9 17.2 14.5 12.3 11.6 12.5 9.9 11.3 11.4 11.0 10.7 10.6 13.1 11.0 7.8 8.6 5.7 4.3 3.9 5.8 7.3 8.5 7.9
6.3 6.4 6.5 7.6 7.4 12.1 13.9 10.9 14.2 22.8 25.1 29.1 28.5 28.6 24.3 22.4 21.9 20.0 18.8 18.7 18.6 16.7 15.2 13.9 13.3 14.3 17.3 15.6 14.8 13.5 10.8 11.1 8.0 8.3 9.7 11.3 12.5 11.8
7.7 13.9 19.3 14.4 16.7 19.7 21.1 21.6 21.5 21.8 22.9 22.2 21.5 20.8 18.6 17.1 16.6 13.7 13.5 12.6 13.9 11.6 10.9 11.7 10.9 10.7 10.2 11.7 14.8 13.2 12.3 11.8 10.4 11.8 10.1 13.2 12.9 12.5
17.7 19.8 20.6 20.1 19.2 19.2 19.0 18.2 15.7 14.9 13.2 11.8 10.6 9.6 9.4 8.5 7.8 5.6 5.4 6.9 7.2 5.8 5.4 5.4 7.1 7.8 7.9 7.5 7.0 10.0 8.6 8.2 7.9 7.4 7.4 11.2 12.6 13.8
14.2 11.7 14.5 13.5 11.7 10.0 9.0 8.4 9.0 7.8 4.7 5.4 5.5 4.5 2.7 2.0 2.4 1.9 1.6 1.4 1.9 1.6 1.7 2.8 3.6 5.8 8.3 8.6 5.8 4.1 7.0 5.2 5.0 5.4 4.7 6.4 10.5 10.6
7.4 7.2 7.7 6.3 5.1 4.5 4.5 4.4 4.3 2.5 2.2 1.2 1.7 1.6 2.1 2.5 2.1 1.3 1.0 2.1 1.5 0.6 0.6 0.5 0.6 2.1 7.0 10.8 9.5 3.5 3.0 7.8 4.7 4.0 3.8 4.5 4.1 5.5
5.5 5.3 4.6 4.5 4.6 4.3 3.8 3.5 4.1 4.2 1.9 5.1 3.7 4.6 5.2 5.6 4.2 2.5 4.3 3.5 3.3 3.0 1.9 0.5 0.1 1.3 2.2 3.2 7.2 3.8 1.9 1.8 2.1 2.4 4.1 4.9 3.1 5.0
4.9 4.7 3.1 3.7 2.9 2.7 3.4 3.1 3.4 2.9 3.5 4.2 3.4 2.3 3.0 3.0 3.6 2.3 2.5 2.7 2.1 2.1 1.1 0.5 0.4 1.2 2.3 3.2 3.8 4.0 2.0 2.5 1.2 1.3 2.5 3.9 8.1 11.2
3.4 2.5 2.6 2.6 2.2 2.1 2.3 2.6 2.5 2.3 2.6 4.3 3.3 2.6 2.7 3.4 2.5 2.4 2.1 1.9 2.1 1.6 1.2 1.9 1.8 1.7 1.7 1.4 1.9 4.2 2.3 3.3 1.7 3.2 3.2 2.1 3.6 2.4

GFSNE_prec_kuchsnow_162.txt.gz
Snowfall_Accumulation
0.0 0.1 0.0 0.0 0.0 0.1 0.1 0.1 2.6 4.0 0.4 0.0 0.0 0.0 0.0 0.0 0.0 0.0 0.0 0.0 0.0 0.0 0.0 0.0 0.0 0.0 0.0 0.0 0.0 0.0 0.0 0.0 0.0 0.0 0.0 0.0 0.0 0.0
0.0 0.0 0.0 0.0 0.0 0.0 0.0 0.1 0.3 1.0 0.9 0.0 0.0 0.0 0.0 0.0 0.0 0.0 0.0 0.0 0.0 0.0 0.0 0.0 0.0 0.0 0.0 0.0 0.0 0.0 0.0 0.0 0.0 0.0 0.0 0.0 0.0 0.0
0.2 0.3 0.2 0.0 0.1 0.0 0.0 0.1 0.1 0.2 0.3 0.0 0.0 0.0 0.0 0.0 0.0 0.0 0.0 0.0 0.0 0.0 0.0 0.0 0.0 0.0 0.0 0.0 0.0 0.0 0.0 0.0 0.0 0.0 0.0 0.0 0.0 0.0
0.5 0.9 1.5 0.8 1.1 0.3 0.2 0.1 0.2 0.2 0.2 0.0 0.0 0.0 0.0 0.0 0.0 0.0 0.0 0.0 0.0 0.0 0.0 0.0 0.0 0.0 0.0 0.0 0.0 0.0 0.0 0.0 0.0 0.0 0.0 0.0 0.0 0.0
3.7 2.5 2.4 1.8 3.6 3.1 2.0 1.1 0.3 0.6 0.9 0.2 0.1 0.0 0.2 0.0 0.0 0.0 0.0 0.0 0.0 0.0 0.0 0.0 0.0 0.0 0.0 0.0 0.0 0.0 0.0 0.0 0.0 0.0 0.0 0.0 0.0 0.0
2.3 2.6 2.9 1.8 4.5 4.7 4.5 5.2 4.0 2.4 1.6 1.6 0.5 0.7 0.4 0.8 0.9 0.1 0.0 0.0 0.0 0.0 0.0 0.0 0.0 0.0 0.0 0.0 0.0 0.0 0.0 0.0 0.0 0.0 0.0 0.0 0.0 0.0
0.4 0.4 0.6 0.4 1.0 2.1 3.3 4.5 3.1 5.4 4.9 3.9 2.3 0.8 1.3 0.6 1.8 2.2 1.2 1.2 0.0 0.0 0.0 0.0 0.0 0.0 0.0 0.0 0.0 0.0 0.0 0.0 0.0 0.0 0.0 0.0 0.0 0.0
5.7 3.3 1.7 0.3 2.0 0.5 0.6 1.8 3.2 5.7 5.8 5.5 6.3 6.0 4.4 3.3 2.0 3.7 3.1 1.9 1.9 1.9 0.2 0.1 0.0 0.0 0.0 0.4 0.0 0.1 0.0 0.0 0.1 0.0 0.0 0.0 0.0 0.2
7.2 7.9 6.1 6.2 4.0 2.5 2.9 1.7 1.5 1.3 4.1 5.0 5.0 5.4 6.8 6.1 4.9 2.8 3.1 5.1 3.9 1.2 0.9 1.5 0.0 0.1 0.0 0.0 0.0 0.0 0.0 0.0 0.0 0.0 0.0 0.0 0.0 0.0
3.3 2.9 1.7 1.6 3.3 2.4 4.3 4.3 2.6 2.7 3.3 5.5 8.2 8.2 8.5 8.7 6.5 5.9 3.6 3.6 2.5 3.9 1.6 2.6 4.7 5.6 1.3 3.7 1.4 0.0 0.0 0.0 0.0 0.0 0.0 0.0 0.1 0.0
0.8 0.8 0.8 0.8 0.7 1.3 0.8 0.8 1.0 1.2 1.0 1.8 3.0 3.1 4.6 3.4 5.5 6.9 9.8 9.9 10.5 7.4 4.5 5.6 5.7 7.2 7.0 3.2 5.8 2.1 2.7 3.5 3.6 0.4 0.7 2.0 2.3 2.6
0.2 0.4 0.2 0.6 1.4 1.3 2.2 2.0 2.0 1.2 1.3 1.4 1.2 0.6 1.6 1.4 1.1 1.9 4.4 8.8 10.2 10.7 8.4 10.4 8.6 9.2 15.2 14.3 14.3 10.9 8.4 9.3 7.6 6.2 4.8 4.2 2.7 2.4
0.1 0.1 0.1 2.5 2.0 1.1 0.9 1.3 2.1 1.8 1.2 0.8 0.7 1.6 1.1 1.2 1.2 0.5 1.5 3.5 5.3 4.9 5.7 13.5 17.9 16.9 21.1 19.8 13.8 10.9 9.5 10.6 10.9 7.8 5.7 4.1 3.6 1.6
5.7 6.0 6.2 3.7 4.6 2.8 3.0 4.1 3.9 4.7 4.3 3.0 2.9 4.4 9.2 6.5 7.0 6.8 8.3 8.8 8.8 10.9 12.3 10.9 16.0 14.3 14.5 14.3 11.3 7.9 6.5 6.2 5.8 7.1 9.4 6.1 4.8 7.4
10.6 10.4 9.8 9.4 9.9 10.0 11.5 10.9 10.5 11.6 12.7 15.9 23.1 23.0 22.8 19.9 17.2 14.5 12.3 11.6 12.5 9.9 11.3 11.4 11.0 10.7 10.6 13.1 11.0 7.8 8.6 5.7 4.3 3.9 5.8 7.3 8.6 7.9
6.3 6.4 6.5 7.6 7.4 12.1 13.9 10.9 14.2 22.8 25.1 29.1 28.5 28.6 24.3 22.4 21.9 20.0 18.8 18.7 18.6 16.7 15.2 13.9 13.3 14.3 17.3 15.6 14.8 13.5 10.8 11.1 8.0 8.3 9.7 11.3 12.5 11.8
7.7 13.9 19.3 14.4 16.7 19.7 21.1 21.6 21.5 21.8 22.9 22.2 21.5 20.8 18.6 17.1 16.6 13.7 13.5 12.6 13.9 11.6 10.9 11.7 10.9 10.7 10.2 11.7 14.8 13.2 12.3 11.8 10.4 11.8 10.1 13.2 12.9 12.5
17.7 19.8 20.6 20.1 19.2 19.2 19.0 18.2 15.7 14.9 13.2 11.8 10.6 9.6 9.4 8.5 7.8 5.6 5.4 6.9 7.2 5.8 5.4 5.4 7.1 7.8 7.9 7.5 7.0 10.0 8.6 8.2 7.9 7.4 7.4 11.2 12.6 13.8
14.2 11.7 14.5 13.5 11.7 10.0 9.0 8.4 9.0 7.8 4.7 5.4 5.5 4.5 2.7 2.0 2.4 1.9 1.6 1.4 1.9 1.6 1.7 2.8 3.6 5.8 8.3 8.6 5.8 4.1 7.0 5.2 5.0 5.4 4.7 6.4 10.5 10.6
7.4 7.2 7.7 6.3 5.1 4.5 4.5 4.4 4.3 2.5 2.2 1.2 1.7 1.6 2.1 2.5 2.1 1.3 1.0 2.1 1.5 0.6 0.6 0.5 0.6 2.1 7.0 10.8 9.5 3.5 3.0 7.8 4.7 4.0 3.8 4.5 4.1 5.5
5.5 5.3 4.6 4.5 4.6 4.3 3.8 3.5 4.1 4.2 1.9 5.1 3.7 4.6 5.2 5.6 4.2 2.5 4.3 3.5 3.3 3.0 1.9 0.5 0.1 1.3 2.2 3.2 7.2 3.8 1.9 1.8 2.1 2.4 4.1 4.9 3.1 5.0
4.9 4.7 3.1 3.7 2.9 2.7 3.4 3.1 3.4 2.9 3.5 4.2 3.4 2.3 3.0 3.0 3.6 2.3 2.5 2.7 2.1 2.1 1.1 0.5 0.4 1.2 2.3 3.2 3.8 4.0 2.0 2.5 1.2 1.3 2.5 3.9 8.1 11.2
3.4 2.5 2.6 2.6 2.2 2.1 2.3 2.6 2.5 2.3 2.6 4.3 3.3 2.6 2.7 3.4 2.5 2.4 2.1 1.9 2.1 1.6 1.2 1.9 1.8 1.7 1.7 1.4 1.9 4.2 2.3 3.3 1.7 3.2 3.2 2.1 3.6 2.4

GFSNE_prec_kuchsnow_168.txt.gz
Snowfall_Accumulation
0.0 0.1 0.0 0.0 0.0 0.1 0.1 0.3 3.1 4.3 0.4 0.0 0.0 0.0 0.0 0.0 0.0 0.0 0.0 0.0 0.0 0.0 0.0 0.0 0.0 0.0 0.0 0.0 0.0 0.0 0.0 0.0 0.0 0.0 0.0 0.0 0.0 0.0
0.0 0.0 0.0 0.0 0.0 0.0 0.0 0.1 0.4 1.3 1.3 0.0 0.0 0.0 0.0 0.0 0.0 0.0 0.0 0.0 0.0 0.0 0.0 0.0 0.0 0.0 0.0 0.0 0.0 0.0 0.0 0.0 0.0 0.0 0.0 0.0 0.0 0.0
0.2 0.3 0.2 0.0 0.1 0.0 0.0 0.1 0.1 0.3 0.5 0.0 0.0 0.0 0.0 0.0 0.0 0.0 0.0 0.0 0.0 0.0 0.0 0.0 0.0 0.0 0.0 0.0 0.0 0.0 0.0 0.0 0.0 0.0 0.0 0.0 0.0 0.0
0.5 0.9 1.5 0.8 1.1 0.3 0.2 0.1 0.2 0.2 0.4 0.1 0.0 0.0 0.0 0.0 0.0 0.0 0.0 0.0 0.0 0.0 0.0 0.0 0.0 0.0 0.0 0.0 0.0 0.0 0.0 0.0 0.0 0.0 0.0 0.0 0.0 0.0
3.7 2.5 2.4 1.8 3.6 3.1 2.0 1.1 0.3 0.6 0.9 0.2 0.1 0.0 0.3 0.1 0.1 0.0 0.0 0.0 0.0 0.0 0.0 0.0 0.0 0.0 0.0 0.0 0.0 0.0 0.0 0.0 0.0 0.0 0.0 0.0 0.0 0.0
2.3 2.6 2.9 1.8 4.5 4.7 4.6 5.3 4.0 2.4 1.6 1.6 0.5 0.7 0.4 0.8 1.1 0.5 0.5 0.5 0.2 0.2 0.1 0.0 0.0 0.0 0.0 0.0 0.0 0.0 0.0 0.0 0.0 0.0 0.0 0.0 0.0 0.0
0.4 0.4 0.6 0.4 1.0 2.1 3.4 4.6 3.1 5.4 4.9 3.9 2.3 0.8 1.3 0.6 2.5 3.3 2.4 2.2 0.7 1.5 0.3 0.3 0.0 0.0 0.0 0.0 0.0 0.0 0.0 0.0 0.0 0.0 0.0 0.0 0.0 0.0
5.7 3.3 1.7 0.3 2.0 0.5 0.6 1.9 3.3 5.8 5.9 5.5 6.3 6.2 4.7 3.9 2.5 5.1 5.6 3.7 3.9 4.1 3.8 2.0 0.4 0.4 0.0 0.4 0.0 0.1 0.0 0.0 0.1 0.0 0.0 0.0 0.0 0.2
7.2 7.9 6.1 6.2 4.0 2.5 2.9 1.7 1.5 1.3 4.2 5.3 5.3 5.9 7.5 7.3 6.5 3.9 5.0 8.7 7.6 4.6 4.4 5.9 3.4 1.5 0.9 1.0 1.2 0.0 0.0 0.0 0.0 0.0 0.0 0.0 0.0 0.0
3.3 2.9 1.7 1.6 3.3 2.4 4.3 4.3 2.6 2.7 3.3 5.6 8.4 8.4 9.0 9.5 7.8 8.2 5.8 5.9 6.3 7.8 5.7 6.5 8.3 10.6 7.2 8.3 2.1 1.3 1.4 0.0 0.0 0.0 0.0 0.0 0.1 0.0
0.8 0.8 0.8 0.8 0.7 1.3 0.8 0.8 1.0 1.2 1.0 1.8 3.0 3.1 4.6 3.4 5.5 7.6 11.1 11.8 12.5 10.1 7.6 9.6 9.3 10.9 10.0 7.4 10.4 5.3 5.5 5.3 5.1 1.2 1.0 2.0 2.3 2.6
0.2 0.4 0.2 0.6 1.4 1.3 2.2 2.0 2.0 1.2 1.3 1.4 1.2 0.6 1.6 1.4 1.1 1.9 4.8 9.5 11.3 11.8 9.5 12.6 11.0 11.8 18.2 16.2 16.0 13.2 10.9 11.7 9.9 7.9 4.9 4.2 2.7 2.4
0.1 0.1 0.1 2.5 2.0 1.1 0.9 1.3 2.1 1.8 1.2 0.8 0.7 1.6 1.1 1.2 1.2 0.5 1.5 3.5 5.6 5.2 6.3 14.3 18.7 17.4 22.6 21.1 14.5 11.4 10.2 11.7 11.9 8.8 6.8 4.8 3.6 1.8
5.7 6.1 6.2 3.7 4.6 2.8 3.0 4.1 3.9 4.7 4.3 3.0 2.9 4.4 9.2 6.5 7.0 6.8 8.3 8.8 8.8 11.0 12.3 10.9 16.3 14.6 14.7 14.7 11.5 8.0 6.6 6.3 6.1 7.5 9.8 6.6 5.4 7.9
10.6 10.4 9.8 9.4 9.9 10.0 11.5 10.9 10.5 11.6 12.7 15.9 23.1 23.0 22.8 19.9 17.2 14.5 12.3 11.6 12.5 9.9 11.3 11.4 11.1 10.8 10.6 13.2 11.0 7.9 8.6 5.7 4.3 4.0 5.9 7.4 8.8 8.2
6.3 6.4 6.5 7.6 7.4 12.1 13.9 10.9 14.2 22.8 25.1 29.1 28.5 28.6 24.3 22.4 21.9 20.0 18.8 18.7 18.6 16.7 15.2 13.9 13.3 14.3 17.3 15.6 14.8 13.5 10.8 11.1 8.0 8.3 9.7 11.3 12.5 11.8
7.7 13.9 19.3 14.4 16.7 19.7 21.1 21.6 21.5 21.8 22.9 22.2 21.5 20.8 18.6 17.1 16.6 13.7 13.5 12.6 13.9 11.6 10.9 11.7 10.9 10.7 10.2 11.7 14.8 13.2 12.3 11.8 10.4 11.8 10.1 13.2 12.9 12.5
17.7 19.8 20.6 20.1 19.2 19.2 19.0 18.2 15.7 14.9 13.2 11.8 10.6 9.6 9.4 8.5 7.8 5.6 5.4 6.9 7.2 5.8 5.4 5.4 7.1 7.8 7.9 7.5 7.0 10.0 8.6 8.2 7.9 7.4 7.4 11.2 12.6 13.8
14.2 11.7 14.5 13.5 11.7 10.0 9.0 8.4 9.0 7.8 4.7 5.4 5.5 4.5 2.7 2.0 2.4 1.9 1.6 1.4 1.9 1.6 1.7 2.8 3.6 5.8 8.3 8.6 5.8 4.1 7.0 5.2 5.0 5.4 4.7 6.4 10.5 10.6
7.4 7.2 7.7 6.3 5.1 4.5 4.5 4.4 4.3 2.5 2.2 1.2 1.7 1.6 2.1 2.5 2.1 1.3 1.0 2.1 1.5 0.6 0.6 0.5 0.6 2.1 7.0 10.8 9.5 3.5 3.0 7.8 4.7 4.0 3.8 4.5 4.1 5.5
5.5 5.3 4.6 4.5 4.6 4.3 3.8 3.5 4.2 4.3 2.0 5.2 3.8 4.6 5.2 5.6 4.2 2.5 4.3 3.5 3.3 3.0 1.9 0.5 0.1 1.3 2.2 3.2 7.2 3.8 1.9 1.8 2.1 2.4 4.1 4.9 3.1 5.0
4.9 4.7 3.1 3.7 2.9 2.7 3.4 3.2 3.4 3.0 3.5 4.2 3.5 2.4 3.1 3.0 3.6 2.3 2.5 2.7 2.1 2.1 1.1 0.5 0.4 1.2 2.3 3.2 3.8 4.0 2.0 2.5 1.2 1.3 2.5 3.9 8.1 11.2
3.4 2.5 2.6 2.6 2.2 2.1 2.3 2.6 2.5 2.4 2.7 4.3 3.4 2.6 2.7 3.4 2.5 2.4 2.1 1.9 2.1 1.6 1.2 1.9 1.8 1.7 1.7 1.4 1.9 4.2 2.3 3.3 1.7 3.2 3.2 2.1 3.6 2.4

GFSNE_prec_kuchsnow_171.txt.gz
Snowfall_Accumulation
0.0 0.1 0.0 0.0 0.0 0.1 0.1 0.3 3.2 4.4 0.4 0.0 0.0 0.0 0.0 0.0 0.0 0.0 0.0 0.0 0.0 0.0 0.0 0.0 0.0 0.0 0.0 0.0 0.0 0.0 0.0 0.0 0.0 0.0 0.0 0.0 0.0 0.0
0.0 0.0 0.0 0.0 0.0 0.0 0.0 0.1 0.4 1.4 1.4 0.0 0.0 0.0 0.0 0.0 0.0 0.0 0.0 0.0 0.0 0.0 0.0 0.0 0.0 0.0 0.0 0.0 0.0 0.0 0.0 0.0 0.0 0.0 0.0 0.0 0.0 0.0
0.2 0.3 0.2 0.0 0.1 0.0 0.0 0.1 0.1 0.3 0.5 0.0 0.0 0.0 0.0 0.0 0.0 0.0 0.0 0.0 0.0 0.0 0.0 0.0 0.0 0.0 0.0 0.0 0.0 0.0 0.0 0.0 0.0 0.0 0.0 0.0 0.0 0.0
0.5 0.9 1.5 0.8 1.1 0.3 0.2 0.1 0.2 0.2 0.4 0.1 0.0 0.0 0.0 0.0 0.0 0.0 0.0 0.0 0.0 0.0 0.0 0.0 0.0 0.0 0.0 0.0 0.0 0.0 0.0 0.0 0.0 0.0 0.0 0.0 0.0 0.0
3.7 2.5 2.4 1.8 3.6 3.1 2.0 1.1 0.3 0.6 0.9 0.2 0.1 0.0 0.3 0.1 0.1 0.0 0.0 0.0 0.0 0.0 0.0 0.0 0.0 0.0 0.0 0.0 0.0 0.0 0.0 0.0 0.0 0.0 0.0 0.0 0.0 0.0
2.3 2.6 2.9 1.8 4.5 4.7 4.6 5.3 4.0 2.4 1.6 1.6 0.5 0.7 0.4 0.8 1.1 0.5 0.5 0.6 0.2 0.2 0.1 0.0 0.1 0.0 0.0 0.0 0.0 0.0 0.0 0.0 0.0 0.0 0.0 0.0 0.0 0.0
0.4 0.4 0.6 0.4 1.0 2.1 3.4 4.6 3.1 5.4 4.9 3.9 2.3 0.8 1.3 0.6 2.6 3.4 2.4 2.2 0.8 1.5 0.4 0.4 0.0 0.0 0.4 0.2 0.0 0.0 0.0 0.0 0.0 0.0 0.0 0.0 0.0 0.0
5.7 3.3 1.7 0.3 2.0 0.5 0.6 1.9 3.3 5.8 5.9 5.5 6.3 6.2 4.8 4.0 2.6 5.2 5.7 3.8 4.0 4.1 3.9 2.1 0.4 0.5 0.5 1.1 0.4 0.1 0.0 0.0 0.1 0.0 0.0 0.0 0.0 0.2
7.2 7.9 6.1 6.2 4.0 2.5 2.9 1.7 1.5 1.3 4.2 5.3 5.3 6.0 7.5 7.4 6.6 4.0 5.0 8.9 7.8 4.6 4.4 6.1 3.4 1.7 1.1 1.3 1.5 0.3 0.5 0.0 0.0 0.0 0.0 0.0 0.0 0.0
3.3 2.9 1.7 1.6 3.3 2.4 4.3 4.3 2.6 2.7 3.3 5.6 8.4 8.4 9.0 9.5 7.8 8.3 5.8 5.9 6.6 7.8 5.7 6.7 8.4 10.6 7.5 8.6 2.1 1.5 1.9 0.6 0.7 0.7 0.0 0.0 0.1 0.0
0.8 0.8 0.8 0.8 0.7 1.3 0.8 0.8 1.0 1.2 1.0 1.8 3.0 3.1 4.6 3.4 5.5 7.6 11.1 11.8 12.5 10.2 7.6 10.0 9.5 10.9 10.3 7.5 10.4 5.3 5.5 5.9 6.0 1.9 1.8 2.0 2.3 2.6
0.2 0.4 0.2 0.6 1.4 1.3 2.2 2.0 2.0 1.2 1.3 1.4 1.2 0.6 1.6 1.4 1.1 1.9 4.8 9.5 11.3 11.8 9.5 12.8 11.2 12.1 18.2 16.5 16.2 13.2 11.1 11.7 10.5 8.9 5.8 5.0 3.4 2.9
0.1 0.1 0.1 2.5 2.0 1.1 0.9 1.3 2.1 1.8 1.2 0.8 0.7 1.6 1.1 1.2 1.2 0.5 1.5 3.5 5.6 5.2 6.3 14.4 18.8 17.4 22.6 21.1 14.5 11.4 10.2 11.7 12.5 8.8 6.8 5.8 4.2 2.4
5.7 6.1 6.2 3.7 4.6 2.8 3.0 4.1 3.9 4.7 4.3 3.0 2.9 4.4 9.2 6.5 7.0 6.8 8.4 8.8 8.8 11.0 12.3 10.9 16.4 14.7 14.8 14.7 11.5 8.0 6.6 6.5 6.1 7.9 10.3 6.6 6.2 8.6
10.6 10.4 9.8 9.4 9.9 10.0 11.5 10.9 10.5 11.6 12.7 15.9 23.1 23.0 22.8 19.9 17.2 14.5 12.3 11.6 12.5 9.9 11.3 11.4 11.1 10.8 10.6 13.2 11.0 7.9 8.6 5.8 4.3 4.1 6.1 7.8 9.1 8.8
6.3 6.4 6.5 7.6 7.4 12.1 13.9 10.9 14.2 22.8 25.1 29.1 28.5 28.6 24.3 22.4 21.9 20.0 18.8 18.7 18.6 16.7 15.2 13.9 13.3 14.3 17.3 15.6 14.8 13.5 10.8 11.1 8.0 8.3 9.8 11.4 12.6 11.9
7.7 13.9 19.3 14.4 16.7 19.7 21.1 21.6 21.5 21.8 22.9 22.2 21.5 20.8 18.6 17.1 16.6 13.7 13.5 12.6 13.9 11.6 10.9 11.7 10.9 10.7 10.2 11.7 14.8 13.2 12.3 11.8 10.4 11.8 10.1 13.2 12.9 12.5
17.7 19.8 20.6 20.1 19.2 19.2 19.0 18.2 15.7 14.9 13.2 11.8 10.6 9.6 9.4 8.5 7.8 5.6 5.4 6.9 7.2 5.8 5.4 5.4 7.1 7.8 7.9 7.5 7.0 10.0 8.6 8.2 7.9 7.4 7.4 11.2 12.6 13.8
14.2 11.7 14.5 13.5 11.7 10.0 9.0 8.4 9.0 7.8 4.7 5.4 5.5 4.5 2.7 2.0 2.4 1.9 1.6 1.4 1.9 1.6 1.7 2.8 3.6 5.8 8.3 8.6 5.8 4.1 7.0 5.2 5.0 5.4 4.7 6.4 10.5 10.6
7.4 7.2 7.7 6.3 5.1 4.5 4.5 4.4 4.3 2.5 2.2 1.2 1.7 1.6 2.1 2.5 2.1 1.3 1.0 2.1 1.5 0.6 0.6 0.5 0.6 2.1 7.0 10.8 9.5 3.5 3.0 7.8 4.7 4.0 3.8 4.5 4.1 5.5
5.5 5.3 4.6 4.5 4.6 4.3 3.8 3.5 4.2 4.3 2.0 5.2 3.9 4.6 5.3 5.6 4.2 2.5 4.3 3.5 3.3 3.0 1.9 0.5 0.1 1.3 2.2 3.2 7.2 3.8 1.9 1.8 2.1 2.4 4.1 4.9 3.1 5.0
4.9 4.7 3.1 3.7 2.9 2.7 3.4 3.2 3.4 3.0 3.5 4.2 3.6 2.4 3.1 3.0 3.6 2.3 2.5 2.7 2.1 2.1 1.1 0.5 0.4 1.2 2.3 3.2 3.8 4.0 2.0 2.5 1.2 1.3 2.5 3.9 8.2 11.2
3.4 2.5 2.6 2.6 2.2 2.1 2.3 2.6 2.5 2.4 2.7 4.3 3.4 2.6 2.8 3.4 2.5 2.4 2.1 1.9 2.1 1.6 1.2 1.9 1.8 1.7 1.7 1.4 1.9 4.2 2.3 3.3 1.7 3.2 3.2 2.1 3.6 2.4

GFSNE_prec_kuchsnow_174.txt.gz
Snowfall_Accumulation
0.0 0.1 0.0 0.0 0.0 0.1 0.1 0.3 3.2 4.4 0.4 0.0 0.0 0.0 0.0 0.0 0.0 0.0 0.0 0.0 0.0 0.0 0.0 0.0 0.0 0.0 0.0 0.0 0.0 0.0 0.0 0.0 0.0 0.0 0.0 0.0 0.0 0.0
0.0 0.0 0.0 0.0 0.0 0.0 0.0 0.1 0.4 1.4 1.4 0.0 0.0 0.0 0.0 0.0 0.0 0.0 0.0 0.0 0.0 0.0 0.0 0.0 0.0 0.0 0.0 0.0 0.0 0.0 0.0 0.0 0.0 0.0 0.0 0.0 0.0 0.0
0.2 0.3 0.2 0.0 0.1 0.0 0.0 0.1 0.1 0.3 0.5 0.0 0.0 0.0 0.0 0.0 0.0 0.0 0.0 0.0 0.0 0.0 0.0 0.0 0.0 0.0 0.0 0.0 0.0 0.0 0.0 0.0 0.0 0.0 0.0 0.0 0.0 0.0
0.5 0.9 1.5 0.8 1.1 0.3 0.2 0.1 0.2 0.2 0.4 0.1 0.0 0.0 0.0 0.0 0.0 0.0 0.0 0.0 0.0 0.0 0.0 0.0 0.0 0.0 0.0 0.0 0.0 0.0 0.0 0.0 0.0 0.0 0.0 0.0 0.0 0.0
3.7 2.5 2.4 1.8 3.6 3.1 2.0 1.1 0.3 0.6 0.9 0.2 0.1 0.0 0.3 0.1 0.1 0.0 0.0 0.0 0.0 0.0 0.0 0.0 0.0 0.0 0.0 0.0 0.0 0.0 0.0 0.0 0.0 0.0 0.0 0.0 0.0 0.0
2.3 2.6 2.9 1.8 4.5 4.7 4.6 5.3 4.0 2.4 1.6 1.6 0.5 0.7 0.4 0.8 1.1 0.5 0.5 0.6 0.3 0.2 0.1 0.0 0.1 0.0 0.0 0.0 0.1 0.0 0.0 0.0 0.0 0.0 0.0 0.0 0.0 0.0
0.4 0.4 0.6 0.4 1.0 2.1 3.4 4.6 3.1 5.4 4.9 3.9 2.3 0.8 1.3 0.6 2.6 3.4 2.4 2.2 0.9 1.5 0.4 0.4 0.0 0.0 0.4 0.2 0.0 0.1 0.0 0.0 0.0 0.0 0.0 0.0 0.0 0.0
5.7 3.3 1.7 0.3 2.0 0.5 0.6 1.9 3.3 5.8 5.9 5.5 6.3 6.2 4.8 4.0 2.6 5.3 5.7 3.8 4.1 4.1 3.9 2.3 0.4 0.6 0.5 1.1 0.6 0.3 0.1 0.2 0.1 0.0 0.0 0.0 0.0 0.2
7.2 7.9 6.1 6.2 4.0 2.5 2.9 1.7 1.5 1.3 4.2 5.3 5.3 6.0 7.5 7.4 6.6 4.0 5.0 8.9 8.4 4.6 4.4 6.1 3.4 1.7 1.3 1.3 1.5 0.3 0.6 0.1 0.1 0.1 0.2 0.0 0.0 0.0
3.3 2.9 1.7 1.6 3.3 2.4 4.3 4.3 2.6 2.7 3.3 5.6 8.4 8.4 9.0 9.5 7.8 8.3 5.8 5.9 6.6 7.8 5.7 6.7 8.4 10.6 7.7 8.6 2.1 1.5 1.9 0.6 0.9 1.0 0.2 0.2 0.3 0.0
0.8 0.8 0.8 0.8 0.7 1.3 0.8 0.8 1.0 1.2 1.0 1.8 3.0 3.1 4.6 3.4 5.5 7.6 11.1 11.8 12.5 10.5 7.6 10.0 9.5 10.9 10.7 7.5 10.4 5.3 5.5 5.9 6.1 2.1 2.1 2.3 2.5 2.6
0.2 0.4 0.2 0.6 1.4 1.3 2.2 2.0 2.0 1.2 1.3 1.4 1.2 0.6 1.6 1.4 1.1 1.9 4.8 9.5 11.3 11.8 9.5 12.8 11.3 12.1 18.2 16.5 16.2 13.2 11.1 11.7 10.5 9.0 6.0 5.3 3.8 3.4
0.1 0.1 0.1 2.5 2.0 1.1 0.9 1.3 2.1 1.8 1.2 0.8 0.7 1.6 1.1 1.2 1.2 0.5 1.5 3.5 5.6 5.2 6.3 14.4 18.8 17.4 22.6 21.1 14.5 11.4 10.2 11.7 12.5 8.8 6.8 6.1 4.6 2.9
5.7 6.1 6.2 3.7 4.6 2.8 3.0 4.1 3.9 4.7 4.3 3.0 2.9 4.4 9.2 6.5 7.0 6.8 8.4 8.8 8.8 11.0 12.3 10.9 16.4 14.7 14.8 14.7 11.5 8.0 6.6 6.5 6.1 7.9 10.3 6.6 6.2 8.9
10.6 10.4 9.8 9.4 9.9 10.0 11.5 10.9 10.5 11.6 12.7 15.9 23.1 23.0 22.8 19.9 17.2 14.5 12.3 11.6 12.5 9.9 11.3 11.4 11.1 10.8 10.6 13.2 11.0 7.9 8.6 5.8 4.3 4.1 6.1 7.8 9.3 9.0
6.3 6.4 6.5 7.6 7.4 12.1 13.9 10.9 14.2 22.8 25.1 29.1 28.5 28.6 24.3 22.4 21.9 20.0 18.8 18.7 18.6 16.7 15.2 13.9 13.3 14.3 17.3 15.6 14.8 13.5 10.8 11.1 8.0 8.3 9.8 11.4 12.6 11.9
7.7 13.9 19.3 14.4 16.7 19.7 21.1 21.6 21.5 21.8 22.9 22.2 21.5 20.8 18.6 17.1 16.6 13.7 13.5 12.6 13.9 11.6 10.9 11.7 10.9 10.7 10.2 11.7 14.8 13.2 12.3 11.8 10.4 11.8 10.1 13.2 12.9 12.5
17.7 19.8 20.6 20.1 19.2 19.2 19.0 18.2 15.7 14.9 13.2 11.8 10.6 9.6 9.4 8.5 7.8 5.6 5.4 6.9 7.2 5.8 5.4 5.4 7.1 7.8 7.9 7.5 7.0 10.0 8.6 8.2 7.9 7.4 7.4 11.2 12.6 13.8
14.2 11.7 14.5 13.5 11.7 10.0 9.0 8.4 9.0 7.8 4.7 5.4 5.5 4.5 2.7 2.0 2.4 1.9 1.6 1.4 1.9 1.6 1.7 2.8 3.6 5.8 8.3 8.6 5.8 4.1 7.0 5.2 5.0 5.4 4.7 6.4 10.5 10.6
7.4 7.2 7.7 6.3 5.1 4.5 4.5 4.4 4.3 2.5 2.2 1.2 1.7 1.6 2.1 2.5 2.1 1.3 1.0 2.1 1.5 0.6 0.6 0.5 0.6 2.1 7.0 10.8 9.5 3.5 3.0 7.8 4.7 4.0 3.8 4.5 4.1 5.5
5.5 5.3 4.6 4.5 4.6 4.3 3.8 3.5 4.2 4.3 2.0 5.2 3.9 4.6 5.3 5.6 4.2 2.5 4.3 3.5 3.3 3.0 1.9 0.5 0.1 1.3 2.2 3.2 7.2 3.8 1.9 1.8 2.1 2.4 4.1 4.9 3.1 5.0
4.9 4.7 3.1 3.7 2.9 2.7 3.4 3.2 3.4 3.0 3.5 4.2 3.6 2.4 3.1 3.0 3.6 2.3 2.5 2.7 2.1 2.1 1.1 0.5 0.4 1.2 2.3 3.2 3.8 4.0 2.0 2.5 1.2 1.3 2.5 3.9 8.2 11.4
3.4 2.5 2.6 2.6 2.2 2.1 2.3 2.6 2.5 2.4 2.7 4.3 3.4 2.6 2.8 3.5 2.5 2.5 2.1 1.9 2.1 1.6 1.2 1.9 1.8 1.7 1.7 1.4 1.9 4.2 2.3 3.3 1.7 3.2 3.2 2.1 3.6 2.4

GFSNE_prec_kuchsnow_177.txt.gz
Snowfall_Accumulation
0.0 0.1 0.0 0.0 0.0 0.1 0.1 0.3 3.2 4.4 0.4 0.0 0.0 0.0 0.0 0.0 0.0 0.0 0.0 0.0 0.0 0.0 0.0 0.0 0.0 0.0 0.0 0.0 0.0 0.0 0.0 0.0 0.0 0.0 0.0 0.0 0.0 0.0
0.0 0.0 0.0 0.0 0.0 0.0 0.0 0.1 0.4 1.4 1.4 0.0 0.0 0.0 0.0 0.0 0.0 0.0 0.0 0.0 0.0 0.0 0.0 0.0 0.0 0.0 0.0 0.0 0.0 0.0 0.0 0.0 0.0 0.0 0.0 0.0 0.0 0.0
0.2 0.3 0.2 0.0 0.1 0.0 0.0 0.1 0.1 0.3 0.5 0.0 0.0 0.0 0.0 0.0 0.0 0.0 0.0 0.0 0.0 0.0 0.0 0.0 0.0 0.0 0.0 0.0 0.0 0.0 0.0 0.0 0.0 0.0 0.0 0.0 0.0 0.0
0.5 0.9 1.5 0.8 1.1 0.3 0.2 0.1 0.2 0.2 0.4 0.1 0.0 0.0 0.0 0.0 0.0 0.0 0.0 0.0 0.0 0.0 0.0 0.0 0.0 0.0 0.0 0.0 0.0 0.0 0.0 0.0 0.0 0.0 0.0 0.0 0.0 0.0
3.7 2.5 2.4 1.8 3.6 3.1 2.0 1.1 0.3 0.6 0.9 0.2 0.1 0.0 0.3 0.1 0.1 0.0 0.0 0.0 0.0 0.0 0.0 0.0 0.0 0.0 0.0 0.0 0.0 0.0 0.0 0.0 0.0 0.0 0.0 0.0 0.0 0.0
2.3 2.6 2.9 1.8 4.5 4.7 4.6 5.3 4.0 2.4 1.6 1.6 0.5 0.7 0.4 0.8 1.1 0.5 0.5 0.6 0.4 0.2 0.1 0.0 0.1 0.0 0.0 0.0 0.1 0.0 0.0 0.0 0.0 0.0 0.0 0.0 0.0 0.0
0.4 0.4 0.6 0.4 1.0 2.1 3.4 4.6 3.1 5.4 4.9 3.9 2.3 0.8 1.3 0.6 2.6 3.4 2.4 2.2 0.9 1.5 0.4 0.4 0.0 0.0 0.4 0.2 0.0 0.1 0.0 0.0 0.0 0.0 0.0 0.0 0.0 0.0
5.7 3.3 1.7 0.3 2.0 0.5 0.6 1.9 3.3 5.8 5.9 5.5 6.3 6.3 4.9 4.0 2.6 5.3 5.7 3.8 4.2 4.1 3.9 2.3 0.4 0.6 0.5 1.1 0.6 0.3 0.1 0.2 0.1 0.0 0.0 0.0 0.0 0.2
7.2 7.9 6.1 6.2 4.0 2.5 2.9 1.7 1.5 1.3 4.2 5.3 5.3 6.0 7.5 7.4 6.6 4.0 5.0 8.9 8.6 4.6 4.4 6.1 3.4 1.7 1.6 1.3 1.5 0.3 0.6 0.1 0.1 0.2 0.2 0.0 0.0 0.0
3.3 2.9 1.7 1.6 3.3 2.4 4.3 4.3 2.6 2.7 3.3 5.6 8.4 8.4 9.0 9.5 7.8 8.3 5.8 5.9 6.6 7.8 5.7 6.7 8.4 10.6 8.0 8.6 2.1 1.5 1.9 0.6 0.9 1.0 0.2 0.3 0.3 0.0
0.8 0.8 0.8 0.8 0.7 1.3 0.8 0.8 1.0 1.2 1.0 1.8 3.0 3.1 4.6 3.4 5.5 7.6 11.1 11.8 12.5 10.5 7.6 10.0 9.5 10.9 10.7 7.5 10.4 5.3 5.5 5.9 6.1 2.1 2.2 2.4 2.5 2.6
0.2 0.4 0.2 0.6 1.4 1.3 2.2 2.0 2.0 1.2 1.3 1.4 1.2 0.6 1.6 1.4 1.1 1.9 4.8 9.6 11.3 11.8 9.5 12.8 11.3 12.1 18.2 16.5 16.2 13.2 11.1 11.7 10.5 9.0 6.0 5.4 3.9 3.4
0.1 0.1 0.1 2.5 2.0 1.1 0.9 1.3 2.1 1.8 1.2 0.8 0.7 1.6 1.1 1.2 1.2 0.5 1.5 3.6 5.6 5.2 6.3 14.4 18.8 17.4 22.6 21.1 14.5 11.4 10.2 11.7 12.5 8.8 6.8 6.2 4.7 3.2
5.7 6.1 6.2 3.7 4.6 2.8 3.0 4.1 3.9 4.7 4.3 3.0 2.9 4.4 9.2 6.5 7.0 6.8 8.4 8.8 8.8 11.0 12.3 10.9 16.4 14.7 14.8 14.7 11.5 8.0 6.6 6.5 6.1 7.9 10.3 6.6 6.2 8.9
10.6 10.4 9.8 9.4 9.9 10.0 11.5 10.9 10.5 11.6 12.7 15.9 23.1 23.0 22.8 19.9 17.2 14.5 12.3 11.6 12.5 9.9 11.3 11.4 11.1 10.8 10.6 13.2 11.0 7.9 8.6 5.8 4.3 4.1 6.1 7.8 9.3 9.0
6.3 6.4 6.5 7.6 7.4 12.1 13.9 10.9 14.2 22.8 25.1 29.1 28.5 28.6 24.3 22.4 21.9 20.0 18.8 18.7 18.6 16.7 15.2 13.9 13.3 14.3 17.3 15.6 14.8 13.5 10.8 11.1 8.0 8.3 9.8 11.4 12.6 11.9
7.7 13.9 19.3 14.4 16.7 19.7 21.1 21.6 21.5 21.8 22.9 22.2 21.5 20.8 18.6 17.1 16.6 13.7 13.5 12.6 13.9 11.6 10.9 11.7 10.9 10.7 10.2 11.7 14.8 13.2 12.3 11.8 10.4 11.8 10.1 13.2 12.9 12.5
17.7 19.8 20.6 20.1 19.2 19.2 19.0 18.2 15.7 14.9 13.2 11.8 10.6 9.6 9.4 8.5 7.8 5.6 5.4 6.9 7.2 5.8 5.4 5.4 7.1 7.8 7.9 7.5 7.0 10.0 8.6 8.2 7.9 7.4 7.4 11.2 12.6 13.8
14.2 11.7 14.5 13.5 11.7 10.0 9.0 8.4 9.0 7.8 4.7 5.4 5.5 4.5 2.7 2.0 2.4 1.9 1.6 1.4 1.9 1.6 1.7 2.8 3.6 5.8 8.3 8.6 5.8 4.1 7.0 5.2 5.0 5.4 4.7 6.4 10.5 10.6
7.4 7.2 7.7 6.3 5.1 4.5 4.5 4.4 4.3 2.5 2.2 1.2 1.7 1.6 2.1 2.5 2.1 1.3 1.0 2.1 1.5 0.6 0.6 0.5 0.6 2.1 7.0 10.8 9.5 3.5 3.0 7.8 4.7 4.0 3.9 4.5 4.1 5.5
5.5 5.3 4.6 4.5 4.6 4.3 3.8 3.5 4.2 4.3 2.0 5.2 3.9 4.6 5.3 5.6 4.2 2.5 4.3 3.5 3.3 3.0 1.9 0.5 0.1 1.3 2.2 3.2 7.2 3.8 1.9 1.8 2.1 2.4 4.1 4.9 3.1 5.0
4.9 4.7 3.1 3.7 2.9 2.7 3.4 3.2 3.4 3.0 3.5 4.2 3.6 2.4 3.1 3.0 3.6 2.3 2.5 2.7 2.1 2.1 1.1 0.5 0.4 1.2 2.3 3.2 3.8 4.0 2.0 2.5 1.2 1.3 2.5 3.9 8.2 11.6
3.4 2.5 2.6 2.6 2.2 2.1 2.3 2.6 2.5 2.4 2.7 4.3 3.4 2.6 2.8 3.5 2.5 2.5 2.1 1.9 2.1 1.6 1.2 1.9 1.8 1.7 1.7 1.4 1.9 4.2 2.3 3.3 1.7 3.2 3.2 2.1 3.6 2.4

GFSNE_prec_kuchsnow_180.txt.gz
Snowfall_Accumulation
0.0 0.1 0.0 0.0 0.0 0.1 0.1 0.3 3.2 4.4 0.4 0.0 0.0 0.0 0.0 0.0 0.0 0.0 0.0 0.0 0.0 0.0 0.0 0.0 0.0 0.0 0.0 0.0 0.0 0.0 0.0 0.0 0.0 0.0 0.0 0.0 0.0 0.0
0.0 0.0 0.0 0.0 0.0 0.0 0.0 0.1 0.4 1.4 1.4 0.0 0.0 0.0 0.0 0.0 0.0 0.0 0.0 0.0 0.0 0.0 0.0 0.0 0.0 0.0 0.0 0.0 0.0 0.0 0.0 0.0 0.0 0.0 0.0 0.0 0.0 0.0
0.2 0.3 0.2 0.0 0.1 0.0 0.0 0.1 0.1 0.3 0.5 0.0 0.0 0.0 0.0 0.0 0.0 0.0 0.0 0.0 0.0 0.0 0.0 0.0 0.0 0.0 0.0 0.0 0.0 0.0 0.0 0.0 0.0 0.0 0.0 0.0 0.0 0.0
0.5 0.9 1.5 0.8 1.1 0.3 0.2 0.1 0.2 0.2 0.4 0.1 0.0 0.0 0.0 0.0 0.0 0.0 0.0 0.0 0.0 0.0 0.0 0.0 0.0 0.0 0.0 0.0 0.0 0.0 0.0 0.0 0.0 0.0 0.0 0.0 0.0 0.0
3.7 2.5 2.4 1.8 3.6 3.1 2.0 1.1 0.3 0.6 0.9 0.2 0.1 0.0 0.3 0.1 0.1 0.0 0.0 0.0 0.0 0.0 0.0 0.0 0.0 0.0 0.0 0.0 0.0 0.0 0.0 0.0 0.0 0.0 0.0 0.0 0.0 0.0
2.3 2.6 2.9 1.8 4.5 4.7 4.6 5.3 4.0 2.4 1.6 1.6 0.5 0.7 0.4 0.8 1.1 0.5 0.5 0.6 0.4 0.2 0.1 0.0 0.1 0.0 0.0 0.0 0.1 0.0 0.0 0.0 0.0 0.0 0.0 0.0 0.0 0.0
0.4 0.4 0.6 0.4 1.0 2.1 3.4 4.6 3.1 5.4 4.9 3.9 2.3 0.8 1.3 0.6 2.6 3.4 2.4 2.2 1.0 1.5 0.4 0.4 0.0 0.0 0.4 0.2 0.0 0.1 0.0 0.1 0.1 0.0 0.0 0.0 0.0 0.0
5.7 3.3 1.7 0.3 2.0 0.5 0.6 1.9 3.3 5.8 5.9 5.5 6.3 6.3 4.9 4.0 2.6 5.3 5.7 3.8 4.2 4.1 3.9 2.3 0.4 0.6 0.5 1.1 0.6 0.3 0.1 0.2 0.1 0.1 0.1 0.0 0.0 0.2
7.2 7.9 6.1 6.2 4.0 2.5 2.9 1.7 1.5 1.3 4.2 5.3 5.3 6.0 7.6 7.4 6.6 4.0 5.0 8.9 8.6 4.6 4.4 6.1 3.4 1.7 1.6 1.3 1.5 0.3 0.6 0.1 0.2 0.2 0.2 0.0 0.0 0.0
3.3 2.9 1.7 1.6 3.3 2.4 4.3 4.3 2.6 2.7 3.4 5.6 8.4 8.4 9.0 9.5 7.8 8.3 5.8 5.9 6.6 7.8 5.7 6.7 8.4 10.6 8.0 8.6 2.1 1.5 1.9 0.6 0.9 1.0 0.3 0.3 0.3 0.0
0.8 0.8 0.8 0.8 0.7 1.3 0.8 0.8 1.0 1.2 1.0 1.8 3.0 3.1 4.6 3.4 5.5 7.6 11.1 11.8 12.5 10.5 7.6 10.0 9.5 10.9 10.7 7.5 10.4 5.3 5.5 5.9 6.1 2.1 2.3 2.4 2.6 2.6
0.2 0.4 0.2 0.6 1.4 1.3 2.2 2.0 2.0 1.2 1.3 1.4 1.2 0.6 1.6 1.4 1.1 1.9 4.8 9.6 11.3 11.8 9.5 12.8 11.3 12.1 18.2 16.5 16.2 13.2 11.1 11.7 10.5 9.0 6.0 5.4 3.9 3.4
0.1 0.1 0.1 2.5 2.0 1.1 0.9 1.3 2.1 1.8 1.2 0.8 0.7 1.6 1.1 1.2 1.2 0.5 1.5 3.6 5.6 5.2 6.3 14.4 18.8 17.4 22.6 21.1 14.5 11.4 10.2 11.7 12.5 8.8 6.8 6.2 4.7 3.3
5.7 6.1 6.2 3.7 4.6 2.8 3.0 4.1 3.9 4.7 4.3 3.0 2.9 4.4 9.2 6.5 7.0 6.8 8.4 8.8 8.8 11.0 12.3 10.9 16.4 14.7 14.8 14.7 11.5 8.0 6.6 6.5 6.1 7.9 10.3 6.6 6.2 8.9
10.6 10.4 9.8 9.4 9.9 10.0 11.5 10.9 10.5 11.6 12.7 15.9 23.1 23.0 22.8 19.9 17.2 14.5 12.3 11.6 12.5 9.9 11.3 11.4 11.1 10.8 10.6 13.2 11.0 7.9 8.6 5.8 4.3 4.1 6.1 7.8 9.3 9.0
6.3 6.4 6.5 7.6 7.4 12.1 13.9 10.9 14.2 22.8 25.1 29.1 28.5 28.6 24.3 22.4 21.9 20.0 18.8 18.7 18.6 16.7 15.2 13.9 13.3 14.3 17.3 15.6 14.8 13.5 10.8 11.1 8.0 8.3 9.8 11.4 12.6 11.9
7.7 13.9 19.3 14.4 16.7 19.7 21.1 21.6 21.5 21.8 22.9 22.2 21.5 20.8 18.6 17.1 16.6 13.7 13.5 12.6 13.9 11.6 10.9 11.7 10.9 10.7 10.2 11.7 14.8 13.2 12.3 11.8 10.4 11.8 10.1 13.2 12.9 12.5
17.7 19.8 20.6 20.1 19.2 19.2 19.0 18.2 15.7 14.9 13.2 11.8 10.6 9.6 9.4 8.5 7.8 5.6 5.4 6.9 7.2 5.8 5.4 5.4 7.1 7.8 7.9 7.5 7.0 10.0 8.6 8.2 7.9 7.4 7.4 11.2 12.6 13.8
14.2 11.7 14.5 13.5 11.7 10.0 9.0 8.4 9.0 7.8 4.7 5.4 5.5 4.5 2.7 2.0 2.4 1.9 1.6 1.4 1.9 1.6 1.7 2.8 3.6 5.8 8.3 8.6 5.8 4.1 7.0 5.2 5.0 5.4 4.7 6.4 10.5 10.6
7.4 7.2 7.7 6.3 5.1 4.5 4.5 4.4 4.3 2.5 2.2 1.2 1.7 1.6 2.1 2.5 2.1 1.3 1.0 2.1 1.5 0.6 0.6 0.5 0.6 2.1 7.0 10.8 9.5 3.5 3.0 7.8 4.7 4.0 3.9 4.5 4.1 5.5
5.5 5.3 4.6 4.5 4.6 4.3 3.8 3.5 4.2 4.3 2.0 5.2 3.9 4.6 5.3 5.6 4.2 2.5 4.3 3.5 3.3 3.0 1.9 0.5 0.1 1.3 2.2 3.2 7.2 3.8 1.9 1.8 2.1 2.4 4.1 4.9 3.1 5.0
4.9 4.7 3.1 3.7 2.9 2.7 3.4 3.2 3.4 3.0 3.5 4.2 3.6 2.4 3.1 3.0 3.6 2.3 2.5 2.7 2.1 2.1 1.1 0.5 0.4 1.2 2.3 3.2 3.8 4.0 2.0 2.5 1.2 1.3 2.5 3.9 8.3 11.9
3.4 2.5 2.6 2.6 2.2 2.1 2.3 2.6 2.5 2.4 2.7 4.3 3.4 2.6 2.8 3.5 2.5 2.5 2.1 1.9 2.1 1.6 1.2 1.9 1.8 1.7 1.7 1.4 1.9 4.2 2.3 3.3 1.7 3.2 3.2 2.1 3.6 2.4

GFSNE_prec_kuchsnow_183.txt.gz
Snowfall_Accumulation
0.0 0.1 0.0 0.0 0.0 0.1 0.1 0.3 3.2 4.4 0.4 0.0 0.0 0.0 0.0 0.0 0.0 0.0 0.0 0.0 0.0 0.0 0.0 0.0 0.0 0.0 0.0 0.0 0.0 0.0 0.0 0.0 0.0 0.0 0.0 0.0 0.0 0.0
0.0 0.0 0.0 0.0 0.0 0.0 0.0 0.1 0.4 1.4 1.4 0.0 0.0 0.0 0.0 0.0 0.0 0.0 0.0 0.0 0.0 0.0 0.0 0.0 0.0 0.0 0.0 0.0 0.0 0.0 0.0 0.0 0.0 0.0 0.0 0.0 0.0 0.0
0.2 0.3 0.2 0.0 0.1 0.0 0.0 0.1 0.1 0.3 0.5 0.0 0.0 0.0 0.0 0.0 0.0 0.0 0.0 0.0 0.0 0.0 0.0 0.0 0.0 0.0 0.0 0.0 0.0 0.0 0.0 0.0 0.0 0.0 0.0 0.0 0.0 0.0
0.5 0.9 1.5 0.8 1.1 0.3 0.2 0.1 0.2 0.2 0.4 0.1 0.0 0.0 0.0 0.0 0.0 0.0 0.0 0.0 0.0 0.0 0.0 0.0 0.1 0.0 0.0 0.0 0.0 0.0 0.0 0.0 0.0 0.0 0.0 0.0 0.0 0.0
3.7 2.5 2.4 1.8 3.6 3.1 2.0 1.1 0.3 0.6 0.9 0.2 0.1 0.0 0.3 0.1 0.1 0.0 0.0 0.0 0.0 0.0 0.0 0.0 0.0 0.0 0.0 0.0 0.0 0.0 0.0 0.0 0.0 0.0 0.0 0.0 0.0 0.0
2.3 2.6 2.9 1.8 4.5 4.7 4.6 5.3 4.0 2.4 1.6 1.6 0.5 0.7 0.4 0.8 1.1 0.5 0.5 0.6 0.4 0.2 0.1 0.0 0.1 0.0 0.0 0.0 0.1 0.0 0.0 0.0 0.0 0.0 0.0 0.0 0.0 0.0
0.4 0.4 0.6 0.4 1.0 2.1 3.4 4.6 3.1 5.4 4.9 3.9 2.3 0.8 1.3 0.6 2.6 3.4 2.4 2.2 1.0 1.5 0.4 0.4 0.0 0.0 0.4 0.2 0.0 0.1 0.0 0.1 0.1 0.0 0.0 0.0 0.0 0.0
5.7 3.3 1.7 0.3 2.0 0.5 0.6 1.9 3.3 5.8 5.9 5.5 6.3 6.3 4.9 4.0 2.6 5.3 5.7 3.8 4.2 4.1 3.9 2.3 0.4 0.6 0.5 1.1 0.6 0.3 0.1 0.2 0.2 0.1 0.1 0.0 0.0 0.2
7.2 7.9 6.1 6.2 4.0 2.5 2.9 1.7 1.5 1.3 4.2 5.3 5.3 6.0 7.6 7.4 6.6 4.0 5.0 8.9 8.6 4.6 4.4 6.1 3.4 1.7 1.6 1.3 1.5 0.3 0.6 0.1 0.2 0.2 0.3 0.1 0.0 0.0
3.3 2.9 1.7 1.6 3.3 2.4 4.3 4.3 2.6 2.7 3.4 5.6 8.4 8.4 9.0 9.5 7.8 8.3 5.8 5.9 6.6 7.8 5.7 6.7 8.4 10.6 8.0 8.6 2.1 1.5 1.9 0.6 0.9 1.0 0.3 0.3 0.3 0.0
0.8 0.8 0.8 0.8 0.7 1.3 0.8 0.8 1.0 1.2 1.0 1.8 3.0 3.1 4.6 3.4 5.5 7.6 11.1 11.8 12.5 10.5 7.6 10.0 9.5 10.9 10.7 7.5 10.4 5.3 5.5 5.9 6.1 2.1 2.3 2.4 2.6 2.6
0.2 0.4 0.2 0.6 1.4 1.3 2.2 2.0 2.0 1.2 1.3 1.4 1.2 0.6 1.6 1.4 1.1 1.9 4.8 9.6 11.3 11.8 9.5 12.8 11.3 12.1 18.2 16.5 16.2 13.2 11.1 11.7 10.5 9.0 6.0 5.4 3.9 3.4
0.1 0.1 0.1 2.5 2.0 1.1 0.9 1.3 2.1 1.8 1.2 0.8 0.7 1.6 1.1 1.2 1.2 0.5 1.5 3.6 5.6 5.2 6.3 14.4 18.8 17.4 22.6 21.1 14.5 11.4 10.2 11.7 12.5 8.8 6.8 6.2 4.7 3.3
5.7 6.1 6.2 3.7 4.6 2.8 3.0 4.1 3.9 4.7 4.3 3.0 2.9 4.4 9.2 6.5 7.0 6.8 8.4 8.8 8.8 11.0 12.3 10.9 16.4 14.7 14.8 14.7 11.5 8.0 6.6 6.5 6.1 7.9 10.3 6.6 6.2 8.9
10.6 10.4 9.8 9.4 9.9 10.0 11.5 10.9 10.5 11.6 12.7 15.9 23.1 23.0 22.8 19.9 17.2 14.5 12.3 11.6 12.5 9.9 11.3 11.4 11.1 10.8 10.6 13.2 11.0 7.9 8.6 5.8 4.3 4.1 6.1 7.8 9.3 9.0
6.3 6.4 6.5 7.6 7.4 12.1 13.9 10.9 14.2 22.8 25.1 29.1 28.5 28.6 24.3 22.4 21.9 20.0 18.8 18.7 18.6 16.7 15.2 13.9 13.3 14.3 17.3 15.6 14.8 13.5 10.8 11.1 8.0 8.3 9.8 11.4 12.6 11.9
7.7 13.9 19.3 14.4 16.7 19.7 21.1 21.6 21.5 21.8 22.9 22.2 21.5 20.8 18.6 17.1 16.6 13.7 13.5 12.6 13.9 11.6 10.9 11.7 10.9 10.7 10.2 11.7 14.8 13.2 12.3 11.8 10.4 11.8 10.1 13.2 12.9 12.5
17.7 19.8 20.6 20.1 19.2 19.2 19.0 18.2 15.7 14.9 13.2 11.8 10.6 9.6 9.4 8.5 7.8 5.6 5.4 6.9 7.2 5.8 5.4 5.4 7.1 7.8 7.9 7.5 7.0 10.0 8.6 8.2 7.9 7.4 7.4 11.3 12.6 13.8
14.2 11.7 14.5 13.5 11.7 10.0 9.0 8.4 9.0 7.8 4.7 5.4 5.5 4.5 2.7 2.0 2.4 1.9 1.6 1.4 1.9 1.6 1.7 2.8 3.6 5.8 8.3 8.6 5.8 4.1 7.0 5.2 5.0 5.4 4.7 6.4 10.5 10.6
7.4 7.2 7.7 6.3 5.1 4.5 4.5 4.4 4.3 2.5 2.2 1.2 1.7 1.6 2.1 2.5 2.1 1.3 1.0 2.1 1.5 0.6 0.6 0.5 0.6 2.1 7.0 10.8 9.5 3.5 3.0 7.8 4.7 4.1 3.9 4.5 4.1 5.5
5.5 5.3 4.6 4.5 4.6 4.3 3.8 3.5 4.2 4.3 2.0 5.2 3.9 4.6 5.3 5.6 4.2 2.5 4.3 3.5 3.3 3.0 1.9 0.5 0.1 1.3 2.2 3.2 7.2 3.8 1.9 1.8 2.1 2.4 4.1 4.9 3.1 5.0
4.9 4.7 3.1 3.7 2.9 2.7 3.4 3.2 3.4 3.0 3.5 4.2 3.6 2.4 3.1 3.0 3.6 2.3 2.5 2.7 2.1 2.1 1.1 0.5 0.4 1.2 2.3 3.2 3.8 4.0 2.0 2.5 1.2 1.3 2.5 3.9 8.4 12.2
3.4 2.5 2.6 2.6 2.2 2.1 2.3 2.6 2.5 2.4 2.7 4.3 3.4 2.6 2.8 3.5 2.5 2.5 2.1 1.9 2.1 1.6 1.2 1.9 1.8 1.7 1.7 1.4 1.9 4.2 2.3 3.3 1.7 3.2 3.2 2.1 3.6 2.4

GFSNE_prec_kuchsnow_186.txt.gz
Snowfall_Accumulation
0.0 0.1 0.0 0.0 0.0 0.1 0.1 0.3 3.2 4.4 0.4 0.0 0.0 0.0 0.0 0.0 0.0 0.0 0.0 0.0 0.0 0.0 0.0 0.0 0.0 0.0 0.0 0.0 0.0 0.0 0.0 0.0 0.0 0.0 0.0 0.0 0.0 0.0
0.0 0.0 0.0 0.0 0.0 0.0 0.0 0.1 0.4 1.4 1.4 0.0 0.0 0.0 0.0 0.0 0.0 0.0 0.0 0.0 0.0 0.0 0.0 0.0 0.0 0.0 0.0 0.0 0.0 0.0 0.0 0.0 0.0 0.0 0.0 0.0 0.0 0.0
0.2 0.3 0.2 0.0 0.1 0.0 0.0 0.1 0.1 0.3 0.5 0.0 0.0 0.0 0.0 0.0 0.0 0.0 0.0 0.0 0.0 0.0 0.0 0.0 0.0 0.0 0.0 0.0 0.0 0.0 0.0 0.0 0.0 0.0 0.0 0.0 0.0 0.0
0.5 0.9 1.5 0.8 1.1 0.3 0.2 0.1 0.2 0.2 0.4 0.1 0.0 0.0 0.0 0.0 0.0 0.0 0.0 0.0 0.0 0.0 0.0 0.0 0.1 0.0 0.0 0.0 0.0 0.0 0.1 0.0 0.0 0.0 0.0 0.0 0.0 0.0
3.7 2.5 2.4 1.8 3.6 3.1 2.0 1.1 0.3 0.6 0.9 0.2 0.1 0.0 0.3 0.1 0.1 0.0 0.0 0.0 0.0 0.0 0.0 0.0 0.0 0.0 0.0 0.0 0.0 0.0 0.0 0.1 0.0 0.0 0.0 0.0 0.0 0.0
2.3 2.6 2.9 1.8 4.5 4.7 4.6 5.3 4.0 2.4 1.6 1.6 0.5 0.7 0.4 0.8 1.1 0.5 0.5 0.6 0.4 0.2 0.1 0.0 0.1 0.0 0.0 0.0 0.1 0.0 0.0 0.0 0.1 0.1 0.0 0.0 0.0 0.0
0.4 0.4 0.6 0.4 1.0 2.1 3.4 4.6 3.1 5.4 4.9 3.9 2.3 0.8 1.3 0.6 2.6 3.4 2.4 2.2 1.0 1.5 0.4 0.4 0.0 0.0 0.4 0.2 0.0 0.1 0.0 0.1 0.1 0.1 0.1 0.1 0.0 0.0
5.7 3.3 1.7 0.3 2.0 0.5 0.6 1.9 3.3 5.8 5.9 5.5 6.3 6.3 4.9 4.0 2.6 5.3 5.7 3.8 4.2 4.1 3.9 2.3 0.4 0.6 0.5 1.1 0.6 0.3 0.1 0.2 0.2 0.1 0.1 0.0 0.0 0.2
7.2 7.9 6.1 6.2 4.0 2.5 2.9 1.7 1.5 1.3 4.2 5.3 5.3 6.0 7.6 7.4 6.6 4.0 5.0 8.9 8.6 4.6 4.4 6.1 3.4 1.7 1.6 1.3 1.5 0.3 0.6 0.1 0.2 0.2 0.3 0.1 0.0 0.0
3.3 2.9 1.7 1.6 3.3 2.4 4.3 4.3 2.6 2.7 3.4 5.6 8.4 8.4 9.0 9.5 7.8 8.3 5.8 5.9 6.6 7.8 5.7 6.7 8.4 10.6 8.0 8.6 2.1 1.5 1.9 0.6 0.9 1.0 0.3 0.3 0.3 0.0
0.8 0.8 0.8 0.8 0.7 1.3 0.8 0.8 1.0 1.2 1.0 1.8 3.0 3.1 4.6 3.4 5.5 7.6 11.1 11.8 12.5 10.5 7.6 10.0 9.5 10.9 10.7 7.5 10.4 5.3 5.5 5.9 6.1 2.1 2.3 2.5 2.6 2.6
0.2 0.4 0.2 0.6 1.4 1.3 2.2 2.0 2.0 1.2 1.3 1.4 1.2 0.6 1.6 1.4 1.1 1.9 4.8 9.6 11.3 11.8 9.5 12.8 11.3 12.1 18.2 16.5 16.2 13.2 11.1 11.7 10.5 9.0 6.1 5.4 3.9 3.5
0.1 0.1 0.1 2.5 2.0 1.1 0.9 1.3 2.1 1.8 1.2 0.8 0.7 1.6 1.1 1.2 1.2 0.5 1.5 3.6 5.6 5.2 6.3 14.4 18.8 17.4 22.6 21.1 14.5 11.4 10.2 11.7 12.5 8.8 6.8 6.2 4.7 3.3
5.7 6.1 6.2 3.7 4.6 2.8 3.0 4.1 3.9 4.7 4.3 3.0 2.9 4.4 9.2 6.5 7.0 6.8 8.4 8.8 8.8 11.0 12.3 10.9 16.4 14.7 14.8 14.7 11.5 8.0 6.6 6.5 6.1 7.9 10.3 6.6 6.2 8.9
10.6 10.4 9.8 9.4 9.9 10.0 11.5 10.9 10.5 11.6 12.7 15.9 23.1 23.0 22.8 19.9 17.2 14.5 12.3 11.6 12.5 9.9 11.3 11.4 11.1 10.8 10.6 13.2 11.0 7.9 8.6 5.8 4.3 4.1 6.1 7.8 9.3 9.0
6.3 6.4 6.5 7.6 7.4 12.1 13.9 10.9 14.2 22.8 25.1 29.1 28.5 28.6 24.3 22.4 21.9 20.0 18.8 18.7 18.6 16.7 15.2 13.9 13.3 14.3 17.3 15.6 14.8 13.5 10.8 11.1 8.0 8.3 9.8 11.4 12.6 11.9
7.7 13.9 19.3 14.4 16.7 19.7 21.1 21.6 21.5 21.8 22.9 22.2 21.5 20.8 18.6 17.1 16.6 13.7 13.5 12.6 13.9 11.6 10.9 11.7 10.9 10.7 10.2 11.7 14.8 13.2 12.3 11.8 10.4 11.8 10.1 13.2 12.9 12.5
17.7 19.8 20.6 20.1 19.2 19.2 19.0 18.2 15.7 14.9 13.2 11.8 10.6 9.6 9.4 8.5 7.8 5.6 5.4 6.9 7.2 5.8 5.4 5.4 7.1 7.8 7.9 7.5 7.0 10.0 8.6 8.2 7.9 7.4 7.4 11.3 12.6 13.8
14.2 11.7 14.5 13.5 11.7 10.0 9.0 8.4 9.0 7.8 4.7 5.4 5.5 4.5 2.7 2.0 2.4 1.9 1.6 1.4 1.9 1.6 1.7 2.8 3.6 5.8 8.3 8.6 5.8 4.1 7.0 5.2 5.0 5.4 4.7 6.4 10.5 10.6
7.4 7.2 7.7 6.3 5.1 4.5 4.5 4.4 4.3 2.5 2.2 1.2 1.7 1.6 2.1 2.5 2.1 1.3 1.0 2.1 1.5 0.6 0.6 0.5 0.6 2.1 7.0 10.8 9.5 3.5 3.0 7.8 4.7 4.1 3.9 4.5 4.1 5.5
5.5 5.3 4.6 4.5 4.6 4.3 3.8 3.5 4.2 4.3 2.0 5.2 3.9 4.6 5.3 5.6 4.2 2.5 4.3 3.5 3.3 3.0 1.9 0.5 0.1 1.3 2.2 3.2 7.2 3.8 1.9 1.8 2.1 2.4 4.1 4.9 3.1 5.0
4.9 4.7 3.1 3.7 2.9 2.7 3.4 3.2 3.4 3.0 3.5 4.2 3.6 2.4 3.1 3.0 3.6 2.3 2.5 2.7 2.1 2.1 1.1 0.5 0.4 1.2 2.3 3.2 3.8 4.0 2.0 2.5 1.2 1.3 2.5 3.9 8.4 12.3
3.4 2.5 2.6 2.6 2.2 2.1 2.3 2.6 2.5 2.4 2.7 4.3 3.4 2.6 2.8 3.5 2.5 2.5 2.1 1.9 2.1 1.6 1.2 1.9 1.8 1.7 1.7 1.4 1.9 4.2 2.3 3.3 1.7 3.2 3.2 2.1 3.6 2.4

GFSNE_prec_kuchsnow_192.txt.gz
Snowfall_Accumulation
0.0 0.1 0.0 0.0 0.0 0.1 0.1 0.3 3.2 4.4 0.4 0.0 0.0 0.0 0.0 0.0 0.0 0.0 0.0 0.0 0.0 0.0 0.0 0.0 0.0 0.0 0.0 0.0 0.0 0.0 0.0 0.0 0.0 0.0 0.0 0.0 0.0 0.0
0.0 0.0 0.0 0.0 0.0 0.0 0.0 0.1 0.4 1.4 1.4 0.0 0.0 0.0 0.0 0.0 0.0 0.0 0.0 0.0 0.0 0.0 0.0 0.0 0.0 0.0 0.0 0.0 0.0 0.0 0.0 0.0 0.0 0.0 0.0 0.0 0.0 0.0
0.2 0.3 0.2 0.0 0.1 0.0 0.0 0.1 0.1 0.3 0.5 0.0 0.0 0.0 0.0 0.0 0.0 0.0 0.0 0.0 0.0 0.0 0.0 0.0 0.0 0.0 0.0 0.0 0.0 0.0 0.0 0.0 0.0 0.0 0.0 0.0 0.0 0.0
0.5 0.9 1.5 0.8 1.1 0.3 0.2 0.1 0.2 0.2 0.4 0.1 0.0 0.0 0.0 0.0 0.0 0.0 0.0 0.0 0.0 0.0 0.0 0.0 0.1 0.0 0.0 0.0 0.0 0.0 0.1 0.0 0.0 0.0 0.0 0.0 0.0 0.0
3.7 2.5 2.4 1.8 3.6 3.1 2.0 1.1 0.3 0.6 0.9 0.2 0.1 0.0 0.3 0.1 0.1 0.0 0.0 0.0 0.0 0.0 0.0 0.0 0.0 0.0 0.0 0.0 0.0 0.0 0.0 0.1 0.0 0.1 0.1 0.0 0.0 0.0
2.3 2.6 2.9 1.8 4.5 4.7 4.6 5.3 4.0 2.4 1.6 1.6 0.5 0.7 0.4 0.8 1.1 0.5 0.5 0.6 0.4 0.2 0.1 0.0 0.1 0.0 0.0 0.0 0.1 0.0 0.0 0.0 0.1 0.1 0.1 0.1 0.0 0.0
0.4 0.4 0.6 0.4 1.0 2.1 3.4 4.6 3.1 5.4 4.9 3.9 2.3 0.8 1.3 0.6 2.6 3.4 2.4 2.2 1.0 1.5 0.4 0.4 0.0 0.0 0.4 0.2 0.0 0.1 0.0 0.1 0.1 0.1 0.1 0.1 0.0 0.0
5.7 3.3 1.7 0.3 2.0 0.5 0.6 1.9 3.3 5.8 5.9 5.5 6.3 6.3 4.9 4.0 2.6 5.3 5.7 3.8 4.2 4.1 3.9 2.3 0.4 0.6 0.5 1.1 0.6 0.3 0.1 0.2 0.2 0.1 0.1 0.0 0.0 0.2
7.2 7.9 6.1 6.2 4.0 2.5 2.9 1.7 1.5 1.3 4.2 5.3 5.3 6.0 7.6 7.4 6.6 4.0 5.0 8.9 8.6 4.6 4.4 6.1 3.4 1.7 1.6 1.3 1.5 0.3 0.6 0.1 0.2 0.2 0.3 0.1 0.0 0.0
3.3 2.9 1.7 1.6 3.3 2.4 4.3 4.3 2.6 2.7 3.4 5.6 8.4 8.4 9.0 9.5 7.8 8.3 5.8 5.9 6.6 7.8 5.7 6.7 8.4 10.6 8.0 8.6 2.1 1.5 1.9 0.6 0.9 1.0 0.3 0.3 0.3 0.0
0.8 0.8 0.8 0.8 0.7 1.3 0.8 0.8 1.0 1.2 1.0 1.8 3.0 3.1 4.6 3.4 5.5 7.6 11.1 11.8 12.5 10.5 7.6 10.0 9.5 10.9 10.7 7.6 10.4 5.3 5.5 5.9 6.1 2.1 2.3 2.5 2.6 2.6
0.2 0.4 0.2 0.6 1.4 1.3 2.2 2.0 2.0 1.2 1.3 1.4 1.2 0.6 1.6 1.4 1.1 1.9 4.8 9.6 11.3 11.8 9.5 12.8 11.3 12.1 18.2 16.5 16.2 13.2 11.1 11.7 10.5 9.0 6.1 5.4 3.9 3.5
0.1 0.1 0.1 2.5 2.0 1.1 0.9 1.3 2.1 1.8 1.2 0.8 0.7 1.6 1.1 1.2 1.2 0.5 1.5 3.6 5.6 5.2 6.3 14.4 18.8 17.4 22.6 21.1 14.5 11.4 10.2 11.7 12.5 8.8 6.8 6.2 4.7 3.4
5.7 6.1 6.2 3.7 4.6 2.8 3.0 4.1 3.9 4.7 4.3 3.0 2.9 4.4 9.2 6.5 7.0 6.8 8.4 8.8 8.8 11.0 12.3 10.9 16.4 14.7 14.8 14.7 11.5 8.0 6.6 6.5 6.1 7.9 10.3 6.6 6.2 8.9
10.6 10.4 9.8 9.4 9.9 10.0 11.5 10.9 10.5 11.6 12.7 15.9 23.1 23.0 22.8 19.9 17.2 14.5 12.3 11.6 12.5 9.9 11.3 11.4 11.1 10.8 10.6 13.2 11.0 7.9 8.6 5.8 4.3 4.1 6.1 7.8 9.3 9.0
6.3 6.4 6.5 7.6 7.4 12.1 13.9 10.9 14.2 22.8 25.1 29.1 28.5 28.6 24.3 22.4 21.9 20.0 18.8 18.7 18.6 16.7 15.2 13.9 13.3 14.3 17.3 15.6 14.8 13.5 10.8 11.1 8.0 8.3 9.8 11.4 12.6 11.9
7.7 13.9 19.3 14.4 16.7 19.7 21.1 21.6 21.5 21.8 22.9 22.2 21.5 20.8 18.6 17.1 16.6 13.7 13.5 12.6 13.9 11.6 10.9 11.7 10.9 10.7 10.2 11.7 14.8 13.2 12.3 11.8 10.4 11.8 10.1 13.2 12.9 12.5
17.7 19.8 20.6 20.2 19.2 19.2 19.0 18.2 15.7 14.9 13.2 11.8 10.6 9.6 9.4 8.5 7.8 5.6 5.4 6.9 7.2 5.8 5.4 5.4 7.1 7.8 7.9 7.5 7.0 10.0 8.6 8.2 7.9 7.4 7.4 11.3 12.6 13.8
14.3 11.7 14.5 13.6 11.7 10.0 9.0 8.4 9.0 7.8 4.7 5.4 5.5 4.5 2.7 2.0 2.4 1.9 1.6 1.4 1.9 1.6 1.7 2.8 3.6 5.8 8.3 8.6 5.8 4.1 7.0 5.2 5.0 5.4 4.7 6.4 10.5 10.6
7.4 7.2 7.8 6.3 5.1 4.5 4.5 4.4 4.3 2.5 2.2 1.2 1.7 1.6 2.1 2.5 2.1 1.3 1.0 2.1 1.5 0.6 0.6 0.5 0.6 2.1 7.0 10.8 9.5 3.5 3.0 7.8 4.7 4.1 3.9 4.5 4.1 5.5
5.5 5.3 4.6 4.5 4.6 4.3 3.8 3.5 4.2 4.3 2.0 5.2 3.9 4.6 5.3 5.6 4.2 2.5 4.3 3.5 3.3 3.0 1.9 0.5 0.1 1.3 2.2 3.2 7.2 3.8 1.9 1.8 2.1 2.4 4.1 4.9 3.1 5.0
4.9 4.7 3.1 3.7 2.9 2.7 3.4 3.2 3.4 3.0 3.5 4.2 3.6 2.4 3.1 3.0 3.6 2.3 2.5 2.7 2.1 2.1 1.1 0.5 0.4 1.2 2.3 3.2 3.8 4.0 2.0 2.5 1.2 1.3 2.5 3.9 8.4 12.3
3.4 2.5 2.6 2.6 2.2 2.1 2.3 2.6 2.5 2.4 2.7 4.3 3.4 2.6 2.8 3.5 2.5 2.5 2.1 1.9 2.1 1.6 1.2 1.9 1.8 1.7 1.7 1.4 1.9 4.2 2.3 3.3 1.7 3.2 3.2 2.1 3.6 2.4

GFSNE_prec_kuchsnow_195.txt.gz
Snowfall_Accumulation
0.0 0.1 0.0 0.0 0.0 0.1 0.1 0.3 3.2 4.4 0.4 0.0 0.0 0.0 0.0 0.0 0.0 0.0 0.0 0.0 0.0 0.0 0.0 0.0 0.0 0.0 0.0 0.0 0.0 0.0 0.0 0.0 0.0 0.0 0.0 0.0 0.0 0.0
0.0 0.0 0.0 0.0 0.0 0.0 0.0 0.1 0.4 1.4 1.4 0.0 0.0 0.0 0.0 0.0 0.0 0.0 0.0 0.0 0.0 0.0 0.0 0.0 0.0 0.0 0.0 0.0 0.0 0.0 0.0 0.0 0.0 0.0 0.0 0.0 0.0 0.0
0.2 0.3 0.2 0.0 0.1 0.0 0.0 0.1 0.1 0.3 0.5 0.0 0.0 0.0 0.0 0.0 0.0 0.0 0.0 0.0 0.0 0.0 0.0 0.0 0.0 0.0 0.0 0.0 0.0 0.0 0.0 0.0 0.0 0.0 0.0 0.0 0.0 0.0
0.5 0.9 1.5 0.8 1.1 0.3 0.2 0.1 0.2 0.2 0.4 0.1 0.0 0.0 0.0 0.0 0.0 0.0 0.0 0.0 0.0 0.0 0.0 0.0 0.1 0.0 0.0 0.0 0.0 0.0 0.1 0.0 0.0 0.0 0.0 0.0 0.0 0.0
3.7 2.5 2.4 1.8 3.6 3.1 2.0 1.1 0.3 0.6 0.9 0.2 0.1 0.0 0.3 0.1 0.1 0.0 0.0 0.0 0.0 0.0 0.0 0.0 0.0 0.0 0.0 0.0 0.0 0.0 0.0 0.1 0.0 0.1 0.1 0.0 0.0 0.0
2.3 2.6 2.9 1.8 4.5 4.7 4.6 5.3 4.0 2.4 1.6 1.6 0.5 0.7 0.4 0.8 1.1 0.5 0.5 0.6 0.4 0.2 0.1 0.0 0.1 0.0 0.0 0.0 0.1 0.0 0.0 0.0 0.1 0.1 0.1 0.1 0.0 0.0
0.4 0.4 0.6 0.4 1.0 2.1 3.4 4.6 3.1 5.4 4.9 3.9 2.3 0.8 1.3 0.6 2.6 3.4 2.4 2.2 1.0 1.5 0.4 0.4 0.0 0.0 0.4 0.2 0.0 0.1 0.0 0.1 0.1 0.1 0.1 0.1 0.0 0.0
5.7 3.3 1.7 0.3 2.0 0.5 0.6 1.9 3.3 5.8 5.9 5.5 6.3 6.3 4.9 4.0 2.6 5.3 5.7 3.8 4.2 4.1 3.9 2.3 0.4 0.6 0.5 1.1 0.6 0.3 0.1 0.2 0.2 0.1 0.1 0.0 0.0 0.2
7.2 7.9 6.1 6.2 4.0 2.5 2.9 1.7 1.5 1.3 4.2 5.3 5.3 6.0 7.6 7.4 6.6 4.0 5.0 8.9 8.6 4.6 4.4 6.1 3.4 1.7 1.6 1.3 1.5 0.3 0.6 0.1 0.2 0.2 0.3 0.1 0.0 0.0
3.3 2.9 1.7 1.6 3.3 2.4 4.3 4.3 2.6 2.7 3.4 5.6 8.4 8.4 9.0 9.5 7.8 8.3 5.8 5.9 6.6 7.8 5.7 6.7 8.4 10.6 8.0 8.7 2.1 1.5 1.9 0.6 0.9 1.0 0.3 0.3 0.3 0.0
0.8 0.8 0.8 0.8 0.7 1.3 0.8 0.8 1.0 1.2 1.0 1.8 3.0 3.1 4.6 3.4 5.5 7.6 11.1 11.8 12.5 10.5 7.6 10.0 9.5 10.9 10.7 7.6 10.4 5.3 5.5 5.9 6.1 2.1 2.3 2.5 2.6 2.6
0.4 0.5 0.2 0.6 1.4 1.3 2.2 2.0 2.0 1.2 1.3 1.4 1.2 0.6 1.6 1.4 1.1 1.9 4.8 9.6 11.3 11.9 9.5 12.8 11.3 12.1 18.2 16.6 16.2 13.2 11.1 11.7 10.5 9.0 6.1 5.4 3.9 3.5
0.4 0.2 0.1 2.5 2.0 1.1 0.9 1.3 2.1 1.8 1.2 0.8 0.7 1.6 1.1 1.2 1.2 0.5 1.5 3.6 5.6 5.2 6.3 14.4 18.8 17.4 22.6 21.1 14.5 11.4 10.2 11.7 12.5 8.8 6.8 6.2 4.7 3.4
6.0 6.2 6.3 3.7 4.6 2.8 3.0 4.1 3.9 4.7 4.3 3.0 2.9 4.4 9.2 6.5 7.0 6.8 8.4 8.8 8.8 11.0 12.3 10.9 16.4 14.7 14.8 14.7 11.5 8.0 6.6 6.5 6.1 7.9 10.3 6.6 6.2 8.9
10.8 10.5 9.9 9.4 9.9 10.0 11.5 10.9 10.5 11.6 12.7 15.9 23.1 23.0 22.8 19.9 17.2 14.5 12.3 11.6 12.5 9.9 11.3 11.4 11.1 10.8 10.6 13.2 11.0 7.9 8.6 5.8 4.3 4.1 6.1 7.8 9.3 9.0
6.4 6.5 6.6 7.6 7.4 12.1 13.9 10.9 14.2 22.8 25.1 29.1 28.5 28.6 24.3 22.4 21.9 20.0 18.8 18.7 18.6 16.7 15.2 13.9 13.3 14.3 17.3 15.6 14.8 13.5 10.8 11.1 8.0 8.3 9.8 11.4 12.6 11.9
7.9 14.1 19.4 14.4 16.7 19.7 21.1 21.6 21.5 21.8 22.9 22.2 21.5 20.8 18.6 17.1 16.6 13.7 13.5 12.6 13.9 11.6 10.9 11.7 10.9 10.7 10.2 11.7 14.8 13.2 12.3 11.8 10.4 11.8 10.1 13.2 12.9 12.5
18.0 20.0 20.7 20.2 19.2 19.2 19.0 18.2 15.7 14.9 13.2 11.8 10.6 9.6 9.4 8.5 7.8 5.6 5.4 6.9 7.2 5.8 5.4 5.4 7.1 7.8 7.9 7.5 7.0 10.0 8.6 8.2 7.9 7.4 7.4 11.3 12.6 13.8
14.4 11.8 14.5 13.6 11.8 10.0 9.0 8.4 9.0 7.8 4.7 5.4 5.5 4.5 2.7 2.0 2.4 1.9 1.6 1.4 1.9 1.6 1.7 2.8 3.6 5.8 8.3 8.6 5.8 4.1 7.0 5.2 5.0 5.4 4.7 6.4 10.5 10.6
7.4 7.2 7.8 6.3 5.1 4.5 4.5 4.4 4.3 2.5 2.2 1.2 1.7 1.6 2.1 2.5 2.1 1.3 1.0 2.1 1.5 0.6 0.6 0.5 0.6 2.1 7.0 10.8 9.5 3.5 3.0 7.8 4.7 4.1 3.9 4.5 4.1 5.5
5.6 5.3 4.6 4.5 4.6 4.3 3.8 3.5 4.2 4.3 2.0 5.2 3.9 4.6 5.3 5.6 4.2 2.5 4.3 3.5 3.3 3.0 1.9 0.5 0.1 1.3 2.2 3.2 7.2 3.8 1.9 1.8 2.1 2.4 4.1 4.9 3.1 5.0
4.9 4.7 3.1 3.7 2.9 2.7 3.4 3.2 3.4 3.0 3.5 4.2 3.6 2.4 3.1 3.0 3.6 2.3 2.5 2.7 2.1 2.1 1.1 0.5 0.4 1.2 2.3 3.2 3.8 4.0 2.0 2.5 1.2 1.3 2.5 3.9 8.4 12.3
3.4 2.5 2.6 2.6 2.2 2.1 2.3 2.6 2.5 2.4 2.7 4.3 3.4 2.6 2.8 3.5 2.5 2.5 2.1 1.9 2.1 1.6 1.2 1.9 1.8 1.7 1.7 1.4 1.9 4.2 2.3 3.3 1.7 3.2 3.2 2.1 3.6 2.4

GFSNE_prec_kuchsnow_198.txt.gz
Snowfall_Accumulation
0.0 0.1 0.0 0.0 0.0 0.1 0.1 0.3 3.2 4.4 0.4 0.0 0.0 0.0 0.0 0.0 0.0 0.0 0.0 0.0 0.0 0.0 0.0 0.0 0.0 0.0 0.0 0.0 0.0 0.0 0.0 0.0 0.0 0.0 0.0 0.0 0.0 0.0
0.0 0.0 0.0 0.0 0.0 0.0 0.0 0.1 0.4 1.4 1.4 0.0 0.0 0.0 0.0 0.0 0.0 0.0 0.0 0.0 0.0 0.0 0.0 0.0 0.0 0.0 0.0 0.0 0.0 0.0 0.0 0.0 0.0 0.0 0.0 0.0 0.0 0.0
0.2 0.3 0.2 0.0 0.1 0.0 0.0 0.1 0.1 0.3 0.5 0.0 0.0 0.0 0.0 0.0 0.0 0.0 0.0 0.0 0.0 0.0 0.0 0.0 0.0 0.0 0.0 0.0 0.0 0.0 0.0 0.0 0.0 0.0 0.0 0.0 0.0 0.0
0.5 0.9 1.5 0.8 1.1 0.3 0.2 0.1 0.2 0.2 0.4 0.1 0.0 0.0 0.0 0.0 0.0 0.0 0.0 0.0 0.0 0.0 0.0 0.0 0.1 0.0 0.0 0.0 0.0 0.0 0.1 0.0 0.0 0.0 0.0 0.0 0.0 0.0
3.7 2.5 2.4 1.8 3.6 3.1 2.0 1.1 0.3 0.6 0.9 0.2 0.1 0.0 0.3 0.1 0.1 0.0 0.0 0.0 0.0 0.0 0.0 0.0 0.0 0.0 0.0 0.0 0.0 0.0 0.0 0.1 0.0 0.1 0.1 0.0 0.0 0.0
2.3 2.6 2.9 1.8 4.5 4.7 4.6 5.3 4.0 2.4 1.6 1.6 0.5 0.7 0.4 0.8 1.1 0.5 0.5 0.6 0.4 0.2 0.1 0.0 0.1 0.0 0.0 0.0 0.1 0.0 0.0 0.0 0.1 0.1 0.1 0.1 0.0 0.0
0.4 0.4 0.6 0.4 1.0 2.1 3.4 4.6 3.1 5.4 4.9 3.9 2.3 0.8 1.3 0.6 2.6 3.4 2.4 2.2 1.0 1.5 0.4 0.4 0.0 0.0 0.4 0.2 0.0 0.1 0.0 0.1 0.1 0.1 0.1 0.1 0.0 0.0
5.7 3.3 1.7 0.3 2.0 0.5 0.6 1.9 3.3 5.8 5.9 5.5 6.3 6.3 4.9 4.0 2.6 5.3 5.7 3.8 4.2 4.1 3.9 2.3 0.4 0.6 0.5 1.1 0.6 0.3 0.1 0.2 0.2 0.1 0.1 0.0 0.0 0.2
7.2 7.9 6.1 6.2 4.0 2.5 2.9 1.7 1.5 1.3 4.2 5.3 5.3 6.0 7.6 7.4 6.6 4.0 5.0 8.9 8.6 4.6 4.4 6.1 3.4 1.7 1.6 1.3 1.5 0.3 0.6 0.1 0.2 0.2 0.3 0.1 0.0 0.0
3.3 2.9 1.7 1.6 3.3 2.4 4.3 4.3 2.6 2.7 3.4 5.6 8.4 8.4 9.0 9.5 7.8 8.3 5.8 5.9 6.6 7.8 5.7 6.7 8.4 10.6 8.0 8.7 2.1 1.5 1.9 0.6 0.9 1.0 0.3 0.3 0.3 0.0
0.8 0.8 0.8 0.8 0.7 1.3 0.8 0.8 1.0 1.2 1.0 1.8 3.0 3.1 4.6 3.4 5.5 7.6 11.1 11.8 12.6 10.5 7.6 10.0 9.5 10.9 10.7 7.6 10.4 5.3 5.5 5.9 6.1 2.1 2.3 2.5 2.6 2.6
0.6 0.5 0.2 0.7 1.5 1.4 2.2 2.0 2.0 1.2 1.3 1.4 1.2 0.6 1.6 1.4 1.1 1.9 4.8 9.6 11.3 11.9 9.5 12.8 11.3 12.1 18.2 16.6 16.2 13.2 11.1 11.7 10.5 9.0 6.1 5.4 3.9 3.5
1.0 1.0 0.6 2.8 2.4 1.2 0.9 1.3 2.2 1.8 1.2 0.8 0.7 1.6 1.1 1.2 1.2 0.5 1.5 3.6 5.6 5.3 6.3 14.4 18.8 17.4 22.6 21.1 14.5 11.4 10.2 11.7 12.5 8.8 6.8 6.2 4.7 3.4
6.9 7.0 6.9 4.3 5.0 2.8 3.0 4.1 3.9 4.7 4.3 3.0 2.9 4.4 9.2 6.5 7.0 6.8 8.4 8.8 8.8 11.0 12.3 10.9 16.4 14.7 14.8 14.7 11.5 8.0 6.6 6.5 6.1 7.9 10.3 6.6 6.2 8.9
11.2 10.8 10.2 9.8 10.1 10.0 11.5 11.0 10.5 11.6 12.7 15.9 23.1 23.0 22.8 19.9 17.2 14.5 12.3 11.6 12.5 9.9 11.3 11.4 11.1 10.8 10.6 13.2 11.0 7.9 8.6 5.8 4.3 4.1 6.1 7.8 9.3 9.0
7.0 7.0 7.1 8.0 7.4 12.1 14.0 11.0 14.2 22.8 25.1 29.1 28.5 28.6 24.3 22.4 21.9 20.0 18.8 18.7 18.6 16.7 15.2 13.9 13.3 14.3 17.3 15.6 14.8 13.5 10.8 11.1 8.0 8.3 9.8 11.4 12.6 11.9
8.4 14.6 20.1 14.8 16.8 19.8 21.2 21.6 21.5 21.8 22.9 22.2 21.5 20.8 18.6 17.1 16.6 13.7 13.5 12.6 13.9 11.6 10.9 11.7 10.9 10.7 10.2 11.7 14.8 13.2 12.3 11.8 10.4 11.8 10.1 13.2 12.9 12.5
18.7 20.6 21.1 20.4 19.3 19.3 19.1 18.3 15.7 14.9 13.2 11.8 10.6 9.6 9.4 8.5 7.8 5.6 5.4 6.9 7.2 5.8 5.4 5.4 7.1 7.8 7.9 7.5 7.0 10.0 8.6 8.2 7.9 7.4 7.4 11.3 12.6 13.8
14.9 12.2 14.8 13.8 11.9 10.1 9.1 8.4 9.0 7.8 4.7 5.4 5.5 4.5 2.7 2.0 2.4 1.9 1.6 1.4 1.9 1.6 1.7 2.8 3.6 5.8 8.3 8.6 5.8 4.1 7.0 5.2 5.0 5.4 4.7 6.4 10.5 10.6
7.8 7.4 8.0 6.5 5.2 4.6 4.5 4.4 4.3 2.5 2.2 1.2 1.7 1.6 2.1 2.5 2.1 1.3 1.0 2.1 1.5 0.6 0.6 0.5 0.6 2.1 7.0 10.8 9.5 3.5 3.0 7.8 4.7 4.1 3.9 4.5 4.1 5.5
5.8 5.5 4.8 4.7 4.7 4.3 3.8 3.5 4.2 4.3 2.0 5.2 3.9 4.6 5.3 5.6 4.2 2.5 4.3 3.5 3.3 3.0 1.9 0.5 0.1 1.3 2.2 3.2 7.2 3.8 1.9 1.8 2.1 2.4 4.1 4.9 3.1 5.0
5.4 5.0 3.4 3.8 2.9 2.7 3.4 3.2 3.4 3.0 3.5 4.2 3.6 2.4 3.1 3.0 3.6 2.3 2.5 2.7 2.1 2.1 1.1 0.5 0.4 1.2 2.3 3.2 3.8 4.0 2.0 2.5 1.2 1.3 2.5 3.9 8.4 12.3
3.8 2.8 2.8 2.7 2.2 2.1 2.3 2.6 2.5 2.4 2.7 4.3 3.4 2.6 2.8 3.5 2.5 2.5 2.1 1.9 2.1 1.6 1.2 1.9 1.8 1.7 1.7 1.4 1.9 4.2 2.3 3.3 1.7 3.2 3.2 2.1 3.6 2.4

GFSNE_prec_kuchsnow_201.txt.gz
Snowfall_Accumulation
0.0 0.1 0.0 0.0 0.0 0.1 0.1 0.3 3.2 4.4 0.4 0.0 0.0 0.0 0.0 0.0 0.0 0.0 0.0 0.0 0.0 0.0 0.0 0.0 0.0 0.0 0.0 0.0 0.0 0.0 0.0 0.0 0.0 0.0 0.0 0.0 0.0 0.0
0.0 0.0 0.0 0.0 0.0 0.0 0.0 0.1 0.4 1.4 1.4 0.0 0.0 0.0 0.0 0.0 0.0 0.0 0.0 0.0 0.0 0.0 0.0 0.0 0.0 0.0 0.0 0.0 0.0 0.0 0.0 0.0 0.0 0.0 0.0 0.0 0.0 0.0
0.2 0.3 0.2 0.0 0.1 0.0 0.0 0.1 0.1 0.3 0.5 0.0 0.0 0.0 0.0 0.0 0.0 0.0 0.0 0.0 0.0 0.0 0.0 0.0 0.0 0.0 0.0 0.0 0.0 0.0 0.0 0.0 0.0 0.0 0.0 0.0 0.0 0.0
0.5 0.9 1.5 0.8 1.1 0.3 0.2 0.1 0.2 0.2 0.4 0.1 0.0 0.0 0.0 0.0 0.0 0.0 0.0 0.0 0.0 0.0 0.0 0.0 0.1 0.0 0.0 0.0 0.0 0.0 0.1 0.0 0.0 0.0 0.0 0.0 0.0 0.0
3.7 2.5 2.4 1.8 3.6 3.1 2.0 1.1 0.3 0.6 0.9 0.2 0.1 0.0 0.3 0.1 0.1 0.0 0.0 0.0 0.0 0.0 0.0 0.0 0.0 0.0 0.0 0.0 0.0 0.0 0.0 0.1 0.0 0.1 0.1 0.0 0.0 0.0
2.3 2.6 2.9 1.8 4.5 4.7 4.6 5.3 4.0 2.4 1.6 1.6 0.5 0.7 0.4 0.8 1.1 0.5 0.5 0.6 0.4 0.2 0.1 0.0 0.1 0.0 0.0 0.0 0.1 0.0 0.0 0.0 0.1 0.1 0.1 0.1 0.0 0.0
0.4 0.4 0.6 0.4 1.0 2.1 3.4 4.6 3.1 5.4 4.9 3.9 2.3 0.8 1.3 0.6 2.6 3.4 2.4 2.2 1.0 1.5 0.4 0.4 0.0 0.0 0.4 0.2 0.0 0.1 0.0 0.1 0.1 0.1 0.1 0.1 0.0 0.0
5.7 3.3 1.7 0.3 2.0 0.5 0.6 1.9 3.3 5.8 5.9 5.5 6.3 6.3 4.9 4.0 2.6 5.3 5.7 3.8 4.2 4.1 3.9 2.3 0.4 0.6 0.5 1.1 0.6 0.3 0.1 0.2 0.2 0.1 0.1 0.0 0.0 0.2
7.2 7.9 6.1 6.2 4.0 2.5 2.9 1.7 1.5 1.3 4.2 5.3 5.3 6.0 7.6 7.4 6.6 4.0 5.0 8.9 8.6 4.6 4.4 6.1 3.4 1.7 1.6 1.3 1.5 0.3 0.6 0.1 0.2 0.2 0.3 0.1 0.0 0.0
3.7 3.2 1.9 1.7 3.3 2.4 4.3 4.3 2.6 2.7 3.4 5.6 8.4 8.4 9.0 9.5 7.8 8.3 5.8 5.9 6.6 7.8 5.7 6.7 8.4 10.6 8.0 8.7 2.1 1.5 1.9 0.6 0.9 1.0 0.3 0.3 0.3 0.0
1.1 1.0 1.0 0.9 0.7 1.3 0.8 0.8 1.0 1.3 1.0 1.8 3.0 3.1 4.6 3.4 5.5 7.6 11.1 11.8 12.6 10.5 7.6 10.0 9.5 10.9 10.7 7.6 10.4 5.3 5.5 5.9 6.1 2.1 2.3 2.5 2.6 2.6
1.1 0.7 0.4 0.9 1.6 1.4 2.2 2.0 2.2 1.4 1.4 1.4 1.2 0.6 1.6 1.4 1.1 1.9 4.8 9.6 11.3 11.9 9.5 12.8 11.3 12.1 18.2 16.6 16.2 13.2 11.1 11.7 10.5 9.0 6.1 5.4 3.9 3.5
1.5 1.5 1.0 3.2 2.8 1.4 1.1 1.5 2.2 1.9 1.3 0.8 0.7 1.6 1.1 1.2 1.2 0.5 1.5 3.6 5.6 5.3 6.3 14.4 18.8 17.4 22.6 21.1 14.5 11.4 10.2 11.7 12.5 8.8 6.8 6.2 4.7 3.4
7.5 7.4 7.3 4.8 5.6 3.3 3.3 4.5 4.3 4.8 4.4 3.0 2.9 4.4 9.2 6.5 7.0 6.8 8.4 8.8 8.8 11.0 12.3 10.9 16.4 14.7 14.8 14.7 11.5 8.0 6.6 6.5 6.1 7.9 10.3 6.6 6.2 8.9
12.1 11.5 10.8 10.5 10.6 10.4 11.8 11.3 10.8 11.8 12.8 16.0 23.2 23.0 22.8 19.9 17.2 14.5 12.3 11.6 12.5 9.9 11.3 11.4 11.1 10.8 10.6 13.2 11.0 7.9 8.6 5.8 4.3 4.1 6.1 7.8 9.3 9.0
8.0 7.8 7.8 9.1 8.2 12.4 14.3 11.4 14.5 22.9 25.2 29.2 28.5 28.6 24.3 22.4 21.9 20.0 18.8 18.7 18.6 16.7 15.2 13.9 13.3 14.3 17.3 15.6 14.8 13.5 10.8 11.1 8.0 8.3 9.8 11.4 12.6 11.9
9.1 15.5 21.5 16.6 18.1 20.4 21.8 22.1 21.7 22.0 23.0 22.3 21.6 20.9 18.6 17.1 16.6 13.7 13.5 12.6 13.9 11.6 10.9 11.7 10.9 10.7 10.2 11.7 14.8 13.2 12.3 11.8 10.4 11.8 10.1 13.2 12.9 12.5
19.4 21.7 22.2 21.2 19.7 19.5 19.3 18.7 16.1 15.0 13.4 11.9 10.7 9.6 9.4 8.5 7.8 5.6 5.4 6.9 7.2 5.8 5.4 5.4 7.1 7.8 7.9 7.5 7.0 10.0 8.6 8.2 7.9 7.4 7.4 11.3 12.6 13.8
15.6 12.9 15.3 14.2 12.2 10.3 9.4 8.8 9.4 8.1 4.8 5.5 5.6 4.5 2.7 2.0 2.4 1.9 1.6 1.4 1.9 1.6 1.7 2.8 3.6 5.8 8.3 8.6 5.8 4.1 7.0 5.2 5.0 5.4 4.7 6.4 10.5 10.6
8.6 7.8 8.3 6.8 5.5 4.9 4.9 4.6 4.7 2.9 2.3 1.3 1.8 1.6 2.1 2.5 2.1 1.3 1.0 2.1 1.5 0.6 0.6 0.5 0.6 2.1 7.0 10.8 9.5 3.5 3.0 7.8 4.7 4.1 3.9 4.5 4.1 5.5
6.1 5.8 5.1 5.1 5.2 4.8 4.4 4.0 4.5 4.5 2.1 5.2 3.9 4.6 5.3 5.6 4.2 2.5 4.3 3.5 3.3 3.0 1.9 0.5 0.1 1.3 2.2 3.2 7.2 3.8 1.9 1.8 2.1 2.4 4.1 4.9 3.1 5.0
5.9 5.7 4.1 4.6 3.8 3.5 4.2 3.8 3.7 3.2 3.5 4.2 3.6 2.4 3.1 3.0 3.6 2.3 2.5 2.7 2.1 2.1 1.1 0.5 0.4 1.2 2.3 3.2 3.8 4.0 2.0 2.5 1.2 1.3 2.5 3.9 8.4 12.3
4.7 3.6 3.6 3.5 3.0 2.7 2.8 3.0 2.6 2.5 2.7 4.3 3.4 2.6 2.8 3.5 2.5 2.5 2.1 1.9 2.1 1.6 1.2 1.9 1.8 1.7 1.7 1.4 1.9 4.2 2.3 3.3 1.7 3.2 3.2 2.1 3.6 2.4

GFSNE_prec_kuchsnow_207.txt.gz
Snowfall_Accumulation
0.0 0.1 0.0 0.0 0.0 0.1 0.1 0.3 3.2 4.4 0.4 0.0 0.0 0.0 0.0 0.0 0.0 0.0 0.0 0.0 0.0 0.0 0.0 0.0 0.0 0.0 0.0 0.0 0.0 0.0 0.0 0.0 0.0 0.0 0.0 0.0 0.0 0.0
0.0 0.0 0.0 0.0 0.0 0.0 0.0 0.1 0.4 1.4 1.4 0.0 0.0 0.0 0.0 0.0 0.0 0.0 0.0 0.0 0.0 0.0 0.0 0.0 0.0 0.0 0.0 0.0 0.0 0.0 0.0 0.0 0.0 0.0 0.0 0.0 0.0 0.0
0.2 0.3 0.2 0.0 0.1 0.0 0.0 0.1 0.1 0.3 0.5 0.0 0.0 0.0 0.0 0.0 0.0 0.0 0.0 0.0 0.0 0.0 0.0 0.0 0.0 0.0 0.0 0.0 0.0 0.0 0.0 0.0 0.0 0.0 0.0 0.0 0.0 0.0
0.5 0.9 1.5 0.8 1.1 0.3 0.2 0.1 0.2 0.2 0.4 0.1 0.4 0.2 0.0 0.0 0.0 0.0 0.0 0.0 0.0 0.0 0.0 0.0 0.1 0.0 0.0 0.0 0.0 0.0 0.1 0.0 0.0 0.0 0.0 0.0 0.0 0.0
3.7 2.5 2.4 1.8 3.6 3.1 2.0 1.1 0.3 0.6 0.9 0.2 0.2 0.0 0.5 0.2 0.1 0.0 0.0 0.0 0.0 0.0 0.0 0.0 0.0 0.0 0.0 0.0 0.0 0.0 0.0 0.1 0.0 0.1 0.1 0.0 0.0 0.0
2.3 2.6 2.9 1.8 4.5 4.7 4.6 5.3 4.0 2.4 1.6 1.6 0.5 0.7 0.8 0.9 1.1 0.5 0.5 0.6 0.4 0.2 0.1 0.0 0.1 0.0 0.0 0.0 0.1 0.0 0.0 0.0 0.1 0.1 0.1 0.1 0.0 0.0
0.4 0.4 0.6 0.4 1.0 2.1 3.4 4.6 3.1 5.4 4.9 3.9 2.3 0.8 1.3 0.7 2.6 3.4 2.4 2.2 1.0 1.5 0.4 0.4 0.0 0.0 0.4 0.2 0.0 0.1 0.0 0.1 0.1 0.1 0.1 0.1 0.0 0.0
5.7 3.3 1.7 0.3 2.0 0.5 0.6 1.9 3.3 5.8 5.9 5.5 6.3 6.3 4.9 4.0 2.6 5.4 5.7 3.8 4.2 4.1 3.9 2.3 0.4 0.6 0.5 1.1 0.6 0.3 0.1 0.2 0.2 0.1 0.1 0.0 0.0 0.2
7.2 7.9 6.1 6.2 4.0 2.5 2.9 1.7 1.5 1.3 4.2 5.3 5.3 6.0 7.6 7.5 6.6 4.0 5.0 8.9 8.6 4.6 4.4 6.1 3.4 1.7 1.6 1.3 1.5 0.3 0.6 0.1 0.2 0.2 0.3 0.1 0.0 0.0
3.7 3.2 1.9 1.7 3.3 2.4 4.3 4.3 2.6 2.7 3.4 5.6 8.4 8.4 9.0 9.5 7.8 8.3 5.8 5.9 6.6 7.8 5.7 6.7 8.4 10.6 8.0 8.7 2.1 1.5 1.9 0.6 0.9 1.0 0.3 0.3 0.3 0.0
1.1 1.0 1.0 0.9 0.7 1.3 1.1 1.0 1.0 1.3 1.0 1.8 3.0 3.1 4.6 3.4 5.5 7.6 11.1 11.8 12.6 10.5 7.6 10.0 9.5 10.9 10.7 7.6 10.4 5.3 5.5 5.9 6.1 2.1 2.3 2.5 2.6 2.6
1.1 0.7 0.4 0.9 1.6 1.8 2.5 2.0 2.2 1.4 1.5 1.5 1.4 0.7 1.6 1.4 1.1 1.9 4.8 9.6 11.3 11.9 9.5 12.8 11.3 12.1 18.2 16.6 16.2 13.2 11.1 11.7 10.5 9.0 6.1 5.4 3.9 3.5
1.7 1.7 1.3 3.5 3.2 1.9 1.4 1.6 2.2 1.9 1.7 1.0 0.9 1.7 1.2 1.2 1.2 0.5 1.5 3.6 5.6 5.3 6.3 14.4 18.8 17.4 22.6 21.1 14.5 11.4 10.2 11.7 12.5 8.8 6.8 6.2 4.7 3.4
7.8 7.6 7.3 5.2 6.1 3.8 3.9 4.7 4.3 5.6 5.1 3.5 2.9 4.9 9.4 6.8 7.3 7.0 8.4 8.8 8.8 11.1 12.3 10.9 16.4 14.7 14.8 14.7 11.5 8.0 6.6 6.5 6.1 7.9 10.3 6.6 6.2 8.9
12.4 11.8 11.2 11.2 11.2 11.4 12.6 12.4 11.4 12.8 13.5 16.4 23.8 23.8 23.4 20.2 17.8 14.8 12.4 11.7 12.5 9.9 11.3 11.4 11.1 10.8 10.6 13.2 11.0 7.9 8.6 5.8 4.3 4.1 6.1 7.8 9.3 9.0
9.1 8.8 9.2 10.9 9.6 13.2 15.1 12.6 15.5 24.0 25.9 29.8 29.0 29.9 25.6 23.7 22.7 20.3 19.0 18.7 18.6 16.8 15.2 13.9 13.3 14.3 17.3 15.6 14.8 13.5 10.8 11.1 8.0 8.3 9.8 11.4 12.6 11.9
10.2 17.4 24.3 19.5 20.6 21.8 23.1 23.3 23.0 23.3 24.3 23.4 22.8 22.1 19.8 18.1 17.2 14.1 13.5 12.7 14.0 11.6 10.9 11.7 10.9 10.7 10.2 11.7 14.8 13.2 12.3 11.8 10.4 11.8 10.1 13.2 12.9 12.5
20.4 22.8 23.3 22.2 20.1 19.8 19.9 19.5 17.7 15.9 14.3 12.9 11.8 10.8 10.5 9.2 8.2 5.9 5.6 7.0 7.3 5.8 5.4 5.4 7.1 7.8 7.9 7.5 7.0 10.0 8.6 8.2 7.9 7.4 7.4 11.3 12.6 13.8
16.9 13.7 15.7 14.8 12.8 10.8 9.7 9.2 10.9 9.4 5.5 6.4 6.4 5.2 3.3 2.5 2.6 2.0 1.7 1.4 1.9 1.6 1.7 2.8 3.6 5.8 8.3 8.6 5.8 4.1 7.0 5.2 5.0 5.4 4.7 6.4 10.5 10.6
9.5 8.2 8.6 7.3 6.3 5.9 5.5 5.4 6.1 4.9 4.4 2.6 2.7 2.2 2.6 2.8 2.2 1.4 1.1 2.1 1.5 0.6 0.6 0.5 0.6 2.1 7.0 10.8 9.5 3.5 3.0 7.8 4.7 4.1 3.9 4.5 4.1 5.5
6.9 6.3 5.5 5.4 6.3 6.0 5.1 4.9 5.8 6.1 3.5 6.4 4.7 5.5 5.8 5.9 4.2 2.6 4.3 3.5 3.3 3.0 1.9 0.5 0.1 1.3 2.2 3.2 7.2 3.8 1.9 1.8 2.1 2.4 4.1 4.9 3.1 5.0
6.4 6.1 4.5 5.2 4.4 4.6 5.4 5.2 5.4 5.2 5.6 5.8 4.5 3.4 3.9 3.5 4.0 2.5 2.6 2.7 2.1 2.1 1.1 0.5 0.4 1.2 2.3 3.2 3.8 4.0 2.0 2.5 1.2 1.3 2.5 3.9 8.4 12.3
5.0 4.2 4.3 4.4 3.8 4.1 4.4 4.7 4.2 3.8 3.9 5.3 4.1 3.4 3.7 4.2 2.9 2.6 2.2 1.9 2.1 1.6 1.2 1.9 1.8 1.7 1.7 1.4 1.9 4.2 2.3 3.3 1.7 3.2 3.2 2.1 3.6 2.4